GFSCGP_250_rhum_027.txt.gz
RH
14 8 27 46 100 100 100 100 100 100 100 100 100 100 100 100 100 100 100 93 85 100 100 100 100 99 99 100 100 100 100 100 93 89 94 100 100 96 97 88 86 90 98 98
16 14 24 38 51 99 100 100 100 100 100 98 90 100 100 100 100 99 90 89 96 94 100 100 100 100 100 100 100 100 100 100 100 100 100 100 100 100 100 100 96 93 92 85
14 20 15 26 42 54 100 100 100 100 100 99 90 90 100 100 100 96 99 100 100 98 100 98 91 98 100 100 100 100 100 100 100 100 100 100 100 100 100 100 100 100 96 86
18 18 22 19 47 65 79 100 100 100 100 100 100 100 100 98 90 92 87 91 100 100 100 93 91 92 91 96 98 98 98 100 100 100 100 100 100 100 100 100 99 94 91 90
32 13 21 28 52 64 99 94 100 100 100 100 100 100 100 100 100 100 100 97 96 94 100 96 100 98 85 81 89 95 98 100 100 100 93 80 77 88 94 99 100 92 100 100
36 20 21 41 57 80 90 94 98 99 100 100 100 100 100 100 100 100 100 100 100 100 100 100 100 99 91 84 78 90 95 97 93 91 88 81 76 80 95 100 100 100 100 100
30 16 27 50 78 82 97 98 96 96 95 100 99 99 98 100 100 100 100 100 100 100 100 100 95 93 93 91 88 88 87 81 77 80 83 89 94 98 100 100 100 100 100 100
29 17 26 34 65 80 85 99 97 100 100 100 96 91 93 99 98 100 100 100 100 100 100 100 99 97 94 90 85 76 69 68 63 59 58 55 47 48 52 54 54 56 66 77
27 21 29 58 66 72 84 93 98 98 95 98 100 94 96 95 88 82 88 94 87 82 81 81 81 76 66 60 54 48 45 46 47 46 48 53 52 51 53 54 58 67 70 76
43 27 30 44 80 76 80 82 92 90 98 98 97 94 91 94 97 98 96 86 80 82 83 80 74 73 71 66 59 57 54 50 48 45 39 38 39 42 44 45 48 50 53 55
66 32 34 39 57 82 85 82 96 88 96 100 96 94 92 97 97 96 91 87 83 78 74 71 69 59 51 51 54 55 53 46 39 33 25 21 18 18 18 19 21 24 28 32
42 33 36 38 46 72 90 91 98 97 95 92 94 98 100 98 90 85 88 84 77 69 69 62 53 47 49 57 55 45 36 29 28 25 22 19 17 16 16 16 17 19 23 26
40 37 40 44 49 49 73 91 96 99 94 93 94 90 86 89 86 81 79 82 92 72 57 53 54 66 62 46 36 34 36 37 34 23 17 16 12 7 6 6 7 11 17 24
45 40 42 44 47 46 60 63 83 97 95 100 86 99 92 89 91 93 98 97 71 52 50 61 63 46 41 38 43 50 36 30 21 14 12 9 7 7 7 5 4 4 7 14
61 52 47 48 51 47 43 47 53 69 81 96 100 100 100 99 99 100 90 69 60 60 68 53 47 46 46 48 55 39 37 28 35 29 20 9 8 7 7 6 4 3 3 7
72 66 57 55 52 68 68 76 94 100 100 100 100 100 100 100 95 87 92 74 61 63 44 47 53 62 64 61 51 58 59 56 46 33 23 17 12 11 10 7 5 5 5 7
85 77 75 62 54 53 62 66 80 86 81 87 95 99 100 98 99 96 87 73 56 45 52 52 56 63 61 54 65 74 80 70 60 41 38 33 24 18 12 11 9 7 7 9
98 97 90 82 84 78 79 84 92 97 100 100 100 99 97 95 100 88 90 71 48 47 55 53 51 66 68 72 84 84 72 62 65 52 46 38 33 26 19 18 15 13 12 13
94 99 100 99 95 89 93 94 97 99 100 100 100 96 98 100 99 97 87 55 56 49 55 58 54 69 77 78 77 78 77 71 67 60 48 45 47 38 36 32 27 27 34 28
94 88 94 98 100 100 100 99 96 99 100 100 96 97 100 100 95 88 56 62 64 60 59 67 63 65 75 84 97 87 91 82 80 72 66 67 58 58 62 58 51 47 46 43
98 98 100 100 100 98 95 91 98 100 99 100 100 100 100 99 78 54 62 64 66 65 69 69 73 75 83 91 84 96 92 99 96 98 91 73 75 78 72 59 57 71 73 74
100 100 94 96 99 100 92 93 97 98 98 100 100 100 99 84 65 64 74 62 66 62 68 74 78 86 89 85 89 89 96 95 99 98 99 94 83 82 80 80 80 90 96 97
98 100 99 86 88 98 93 100 100 100 96 96 96 99 90 82 68 64 64 70 68 62 69 72 76 91 86 82 76 79 81 82 77 81 85 76 77 77 79 83 88 85 90 92
100 94 93 90 79 92 96 96 89 93 89 96 93 79 82 78 72 71 83 75 74 66 70 73 76 84 83 74 69 73 77 75 77 85 79 84 90 90 90 86 82 81 86 92
93 71 56 65 87 88 60 71 77 71 75 88 76 77 88 94 93 88 85 82 95 71 70 77 75 83 81 81 81 86 87 84 86 88 89 79 73 66 64 73 82 86 88 88
94 68 46 46 70 54 54 74 72 73 85 82 81 93 100 100 87 79 80 86 98 85 78 81 73 84 90 91 90 92 93 94 91 91 85 77 68 64 71 81 89 94 96 98

GFSCGP_250_rhum_030.txt.gz
RH
12 15 20 90 100 100 100 100 100 100 97 100 100 100 100 100 100 100 100 100 100 100 100 99 100 100 100 99 86 80 73 66 67 66 66 72 79 76 76 93 99 100 100 96
15 10 14 22 91 100 100 100 100 100 100 97 99 100 100 100 100 100 100 91 100 97 85 78 89 84 90 100 100 97 92 100 100 100 98 99 100 97 100 90 90 100 99 95
17 15 10 13 23 84 100 100 100 100 100 100 99 100 100 100 91 100 94 93 85 74 75 69 95 98 78 80 88 92 100 100 100 100 100 100 100 94 77 81 82 83 89 91
21 17 12 9 17 25 92 100 100 100 100 100 100 98 89 87 87 97 90 95 99 82 80 66 72 83 80 86 98 100 100 100 100 100 92 83 88 94 95 86 78 81 84 91
20 20 12 8 10 31 39 100 100 100 100 100 100 93 92 86 85 92 85 82 88 100 95 86 85 76 74 85 85 65 75 95 90 88 83 86 90 82 81 89 93 94 95 91
20 19 17 14 11 25 38 58 100 100 100 100 100 100 96 82 79 88 88 79 81 89 82 73 74 68 73 67 58 61 67 73 86 83 93 82 75 78 79 94 100 100 100 100
17 16 16 18 15 20 18 26 59 96 100 100 100 100 100 97 96 91 86 78 84 88 80 75 78 79 84 86 78 79 79 85 91 84 76 69 67 79 94 98 99 100 100 100
16 15 15 12 8 9 20 27 41 67 100 100 100 100 100 100 100 100 100 100 100 100 100 100 100 100 99 99 94 98 100 95 91 89 86 81 77 77 74 68 64 61 54 48
17 18 19 16 14 12 26 42 55 55 84 100 100 100 100 100 100 100 100 100 100 100 100 100 100 100 100 99 88 86 88 82 68 65 68 61 60 57 50 47 49 49 50 51
24 21 21 20 18 20 47 42 28 54 74 98 100 100 100 100 100 100 100 100 99 91 88 94 98 100 96 94 89 76 68 65 60 58 52 52 46 37 31 30 31 30 29 34
32 27 26 30 30 42 64 70 65 86 79 97 100 97 97 100 100 100 100 100 94 87 86 91 88 84 76 63 58 61 65 61 52 46 39 33 28 24 24 21 18 18 19 20
38 30 37 36 38 62 59 89 100 96 94 95 94 94 99 100 100 99 94 78 74 80 91 96 95 83 74 67 65 59 52 44 37 31 30 25 26 26 26 22 20 17 12 10
46 45 32 45 53 60 95 96 95 96 100 94 92 99 100 97 92 91 84 84 93 99 96 92 84 73 65 57 50 43 38 40 34 30 33 42 38 30 23 18 12 9 6 6
50 47 45 34 43 54 67 97 98 99 94 93 98 99 100 97 96 96 94 100 100 99 91 84 71 62 53 53 44 46 40 36 41 51 43 30 25 25 27 18 14 8 6 6
55 55 46 42 42 40 38 52 76 91 89 90 97 97 91 100 100 100 100 98 100 98 78 66 51 52 62 55 44 40 42 46 56 51 33 47 42 38 28 16 11 9 8 6
58 59 58 52 51 52 52 39 43 70 82 88 92 92 97 100 95 100 100 92 90 76 57 51 61 69 48 41 42 42 51 61 58 62 65 65 51 50 39 28 18 9 9 7
66 64 68 66 57 56 58 54 50 48 49 58 68 76 88 91 99 100 100 94 98 75 49 67 58 41 42 45 50 56 64 61 67 81 65 64 73 68 62 44 27 17 12 10
80 79 69 68 65 65 62 76 76 86 93 100 100 100 100 100 100 100 100 100 93 63 68 43 40 45 50 60 62 67 65 73 91 91 79 70 79 78 71 56 42 37 28 22
93 89 87 78 71 65 74 74 81 83 92 88 100 100 100 100 100 100 100 98 81 72 47 45 47 55 60 65 69 72 68 65 94 95 94 79 84 81 76 62 48 45 44 50
99 99 98 97 93 81 70 71 77 81 92 96 100 100 100 100 98 99 100 95 74 74 50 56 55 58 65 65 72 74 78 70 80 90 97 89 78 77 73 67 83 68 50 49
89 97 97 100 99 100 98 96 93 90 97 100 100 100 100 100 100 100 99 85 87 58 53 58 62 58 72 70 76 74 72 74 76 75 80 79 74 64 63 69 71 74 84 88
100 99 86 93 98 99 98 100 100 99 98 99 98 100 97 100 100 100 98 98 73 54 56 66 66 62 72 74 78 75 70 65 71 72 68 69 69 70 68 63 58 53 56 62
100 98 98 93 80 88 98 100 100 96 96 96 100 100 100 100 98 99 98 80 58 58 71 82 65 62 67 72 76 75 69 66 70 71 74 78 78 72 63 57 58 64 72 74
100 100 93 95 92 85 86 92 94 93 91 95 100 100 100 100 100 100 84 65 72 78 82 96 67 60 62 68 68 75 73 65 65 71 77 77 76 72 64 56 58 67 76 85
88 98 93 92 98 92 88 85 94 97 90 97 96 97 100 100 95 90 80 75 87 85 88 100 82 67 74 65 71 72 75 71 71 76 82 84 78 69 61 62 64 66 69 73
89 84 88 84 90 93 89 91 87 94 87 84 83 97 99 94 82 84 88 87 90 87 97 100 90 70 70 75 69 76 79 91 90 88 86 82 73 72 66 71 74 77 78 74

GFSCGP_250_rhum_033.txt.gz
RH
10 11 12 17 53 83 100 100 100 100 100 100 100 100 100 100 100 100 100 100 91 94 95 86 84 96 93 94 89 85 79 76 82 95 100 86 70 64 61 57 62 60 66 66
10 11 13 16 21 44 99 100 100 100 100 100 100 100 100 100 100 100 100 100 100 100 100 97 92 89 98 91 97 100 100 99 87 81 77 75 67 63 59 57 59 59 78 83
12 11 12 14 18 26 61 100 100 100 100 99 100 100 100 100 100 100 100 100 100 100 100 100 100 100 100 100 100 100 100 84 77 70 72 64 65 56 63 56 48 56 58 66
15 13 13 14 16 26 43 82 100 100 100 93 94 100 100 100 100 100 100 100 100 98 88 100 100 100 100 100 100 100 98 76 80 69 65 79 72 63 64 74 60 60 77 69
17 15 16 15 15 19 34 49 96 100 100 100 95 86 100 100 100 100 100 100 100 100 92 100 97 99 100 100 100 87 88 71 81 87 81 89 72 67 67 52 74 74 66 82
18 17 17 17 14 16 29 43 67 100 100 100 100 89 78 86 98 100 100 100 98 98 100 100 100 91 88 86 79 71 77 81 98 80 81 70 62 58 50 52 51 53 62 75
18 19 17 16 14 13 16 34 39 60 100 100 100 100 92 82 76 86 92 91 90 90 94 100 100 93 71 71 66 71 64 62 68 62 52 50 54 54 60 62 79 82 84 87
16 15 15 13 14 15 12 21 36 48 98 100 100 100 100 100 94 88 83 81 83 84 89 77 69 69 66 54 51 50 54 55 58 58 56 56 67 74 76 84 86 96 100 85
14 15 15 14 14 14 15 12 18 42 76 99 100 100 100 100 100 99 96 96 86 78 73 61 60 58 53 54 63 74 67 72 83 84 70 69 89 98 82 77 58 41 42 44
17 16 15 15 17 17 16 15 12 14 36 46 77 100 100 100 100 100 98 95 88 87 82 77 83 76 83 91 98 94 98 94 86 84 82 87 82 63 52 44 42 39 33 28
24 22 20 19 20 21 22 20 15 14 22 26 31 46 100 100 100 100 100 100 99 100 100 100 100 100 100 100 100 99 95 88 76 66 63 63 62 52 40 32 30 24 22 26
26 22 32 32 30 25 24 19 20 24 34 34 40 46 90 100 100 100 100 100 100 100 100 100 100 100 98 94 88 80 70 66 57 63 65 58 44 34 29 27 31 39 38 34
25 26 29 32 43 45 34 30 21 19 29 39 42 56 56 94 100 100 100 100 100 100 100 100 100 94 84 80 74 68 60 58 59 64 52 37 27 25 34 43 46 40 32 28
39 32 32 32 44 82 82 67 67 48 52 57 82 100 100 99 100 100 100 100 100 100 100 96 86 78 75 70 65 56 57 65 52 42 33 32 32 45 50 50 46 41 27 24
45 39 41 36 39 54 73 94 100 100 100 98 97 100 99 100 92 95 100 100 96 91 84 76 79 81 80 64 52 54 64 50 40 34 33 37 48 62 53 43 49 48 32 25
39 42 41 41 46 47 62 70 83 97 100 100 100 100 99 100 100 100 100 100 99 97 93 88 83 81 71 63 62 55 46 37 37 39 39 47 61 57 60 54 50 46 40 33
54 45 43 49 40 47 53 58 70 88 88 100 100 100 100 100 100 100 98 96 98 100 97 84 78 70 59 60 57 58 46 41 40 44 48 60 58 58 62 63 55 45 45 39
67 65 55 52 47 56 51 58 58 55 76 84 92 95 92 99 95 96 99 100 100 99 90 89 78 61 56 60 52 49 44 44 50 51 59 66 61 69 68 58 56 52 51 49
77 84 85 79 72 62 63 68 74 76 69 70 73 76 84 86 92 94 97 93 96 98 98 91 69 63 62 46 53 46 47 58 62 66 68 72 67 70 64 59 58 64 65 60
81 85 89 88 85 89 79 80 98 100 100 95 91 85 85 86 100 100 100 100 100 100 96 83 72 68 47 49 50 52 59 66 72 74 71 72 70 67 66 66 60 60 59 60
73 80 87 95 94 94 91 87 88 98 86 98 96 100 100 100 100 100 100 99 99 100 93 85 69 51 52 53 50 58 64 73 80 72 69 66 68 66 64 65 61 54 49 56
89 91 82 83 90 96 96 97 93 89 84 87 94 95 95 100 99 99 99 100 100 100 98 84 64 51 77 64 54 61 74 76 79 73 66 63 64 66 66 67 61 54 48 52
84 84 96 96 92 87 92 98 99 100 98 89 100 100 100 100 100 100 100 100 100 100 89 80 56 72 80 69 69 74 78 74 69 66 59 58 63 64 68 69 59 56 54 54
81 79 82 82 90 96 94 90 92 91 96 97 88 98 100 99 100 100 100 100 100 94 93 64 66 80 87 83 80 73 80 78 66 64 67 66 67 66 69 68 64 60 57 58
85 88 76 86 91 88 91 94 94 90 91 88 94 98 97 96 100 100 100 100 99 91 69 67 82 86 92 88 83 73 75 78 79 73 74 75 76 74 74 74 70 66 68 71
50 77 85 75 85 92 96 94 91 96 90 88 88 91 96 97 99 100 100 100 97 82 77 89 85 92 98 94 90 79 69 76 74 76 79 80 80 83 84 81 79 78 80 82

GFSCGP_250_rhum_036.txt.gz
RH
11 9 9 10 16 21 77 100 100 100 100 94 100 100 100 100 100 100 100 100 100 100 100 100 96 98 97 89 83 75 78 75 69 64 71 80 74 78 82 100 90 79 76 69
10 9 9 9 12 14 20 100 100 100 100 91 100 100 100 100 100 100 100 100 100 100 100 100 100 100 94 93 88 88 71 66 60 64 66 72 90 85 91 81 67 66 65 59
13 12 11 9 10 13 15 31 90 100 100 100 100 100 100 100 100 100 100 100 100 100 100 100 100 100 98 93 87 90 92 92 100 97 90 89 87 98 97 72 63 57 49 45
15 13 12 12 10 12 17 18 25 90 100 100 99 100 100 100 100 96 100 100 100 100 100 100 100 100 100 100 100 100 100 100 88 90 100 97 96 90 91 78 64 56 46 40
12 11 11 12 12 12 14 18 21 51 100 100 100 94 100 100 100 100 100 100 100 100 100 100 100 100 100 100 100 100 100 100 98 99 84 88 82 77 73 65 57 54 50 43
18 16 13 12 13 13 14 18 20 26 76 86 100 100 99 100 100 100 100 100 99 99 100 100 100 100 100 100 100 100 100 100 93 98 98 89 71 70 69 65 54 46 41 45
16 15 15 15 16 16 14 17 18 21 25 95 100 100 100 100 92 100 100 100 100 100 100 100 98 98 100 100 100 100 100 100 82 92 100 100 87 65 57 53 45 39 38 42
19 17 16 18 17 16 14 14 17 19 22 21 75 100 100 100 100 97 98 100 100 100 100 100 100 100 93 93 100 100 100 90 76 82 77 70 60 59 48 42 41 47 53 68
17 17 16 16 15 14 12 13 15 17 24 26 36 65 100 100 100 100 100 90 87 87 94 97 91 85 91 100 99 97 84 73 68 70 61 58 51 42 44 48 67 75 82 76
20 18 18 17 15 13 13 14 13 15 18 23 27 39 50 99 100 100 100 100 100 95 87 79 74 72 76 77 73 68 71 69 59 59 61 52 54 55 54 70 91 94 83 66
27 25 25 23 20 17 15 15 15 15 16 20 25 29 52 88 100 100 100 100 100 100 99 95 87 82 76 71 71 70 71 73 70 76 74 91 93 92 96 98 80 61 50 48
24 27 30 30 26 24 20 18 18 17 15 16 19 28 54 64 94 100 100 100 100 100 100 100 100 98 94 93 99 97 85 78 77 92 82 91 99 88 73 69 53 43 45 33
28 25 26 27 34 32 29 22 20 21 21 16 14 18 42 58 72 99 100 100 100 100 100 100 100 100 100 100 100 100 95 99 97 97 98 82 77 68 60 47 41 38 35 33
37 27 31 34 43 35 29 28 26 24 24 23 21 19 29 56 88 98 100 100 100 100 100 100 100 100 100 100 100 100 99 100 99 93 80 76 70 55 42 40 34 35 34 41
44 39 29 39 41 43 46 41 37 33 25 26 23 23 24 32 48 72 75 85 94 100 100 100 100 100 100 100 100 100 97 98 92 84 71 61 42 40 42 34 33 38 42 47
38 36 40 37 40 41 52 54 55 43 42 28 23 30 50 32 43 49 53 58 75 77 100 100 100 100 100 100 100 100 91 81 66 70 51 45 42 36 33 36 41 46 53 50
36 35 36 39 36 46 58 57 54 65 81 81 89 39 83 62 57 64 89 100 100 100 100 100 100 99 99 97 87 79 70 64 63 52 45 39 35 35 43 47 50 59 54 49
53 42 36 38 38 50 53 76 78 82 82 86 74 76 78 90 86 100 100 100 100 100 100 97 93 88 76 79 76 68 64 60 51 45 38 36 39 47 50 54 58 60 55 58
68 60 50 46 41 45 52 59 64 74 80 75 67 70 75 78 93 91 94 98 96 95 99 97 94 93 91 82 71 68 54 60 54 42 40 44 50 52 57 56 56 61 58 59
60 74 74 70 65 70 61 66 70 65 63 76 78 78 82 92 98 100 100 100 100 100 100 98 88 92 95 85 72 54 63 51 43 45 46 53 57 60 56 52 58 63 64 62
48 65 74 82 80 78 74 62 68 79 66 68 78 85 93 99 99 98 99 98 100 100 99 96 99 91 97 76 66 66 50 46 50 47 54 57 58 57 57 58 60 65 67 59
55 53 58 83 90 93 79 78 91 72 70 75 83 88 93 97 98 92 95 99 100 100 100 100 100 99 82 74 78 54 56 58 52 56 56 58 63 59 57 59 62 65 68 59
73 68 66 66 82 88 94 94 91 95 87 87 97 100 98 100 100 100 100 100 97 100 100 100 93 93 86 76 67 65 74 65 57 61 60 61 64 62 63 66 68 72 73 66
66 74 79 81 80 76 83 92 96 92 88 96 88 86 94 100 100 100 100 100 100 98 91 100 97 96 85 78 63 76 79 75 67 61 62 60 68 70 70 78 81 80 78 71
45 70 75 83 83 88 84 93 96 96 93 91 96 90 82 84 90 93 87 94 98 100 100 100 100 91 90 70 75 85 84 87 78 68 65 64 61 70 79 83 85 85 83 79
45 38 46 69 86 89 93 89 94 98 96 94 88 92 96 93 100 99 96 89 92 98 100 97 100 97 85 80 78 85 92 97 89 75 70 64 64 64 68 80 90 95 92 90

GFSCGP_250_rhum_039.txt.gz
RH
12 11 10 12 13 18 43 100 100 100 100 70 66 80 75 90 93 89 98 100 100 100 100 100 100 100 100 100 100 100 100 100 100 92 90 100 100 100 91 80 76 73 65 68
12 12 12 11 11 14 19 84 100 100 95 64 73 76 65 74 93 95 96 90 88 100 100 100 100 100 100 100 100 100 100 100 100 100 100 100 90 91 84 75 72 84 96 100
14 14 13 11 10 10 14 23 97 100 100 86 95 91 79 74 90 100 91 94 95 94 89 100 100 100 100 100 100 100 100 99 99 98 99 100 97 100 99 93 84 73 57 56
12 14 13 12 11 10 12 17 20 95 100 93 82 94 83 77 84 83 78 95 94 95 100 100 100 100 100 100 100 100 100 100 100 100 100 100 90 80 97 100 100 90 73 61
17 14 13 13 12 10 11 12 17 25 84 99 75 80 100 82 81 90 90 87 92 97 96 100 100 100 100 100 100 100 100 100 100 100 99 92 90 93 95 85 92 96 96 67
19 15 13 14 13 12 10 10 14 19 24 62 66 67 98 92 87 82 86 85 87 85 93 92 100 100 100 100 100 100 100 100 100 100 99 95 90 91 96 90 87 89 96 66
20 19 15 14 14 15 15 13 13 15 18 24 38 52 100 95 97 92 86 91 97 97 94 93 98 100 100 100 100 100 100 100 100 100 100 100 100 100 96 95 91 78 67 59
23 20 16 13 12 12 17 18 17 16 21 27 32 22 49 100 100 100 97 92 95 100 100 94 96 100 100 100 100 100 100 100 100 100 100 99 99 100 100 94 78 76 66 57
24 22 21 18 16 14 14 17 18 18 16 17 22 25 30 58 79 96 100 100 100 100 100 100 100 98 100 100 100 100 100 99 100 100 100 100 99 95 93 84 78 72 65 54
27 26 23 22 19 18 19 17 18 17 16 14 16 19 23 26 57 83 84 93 100 100 100 98 97 100 100 100 100 99 99 95 96 100 100 99 90 81 76 68 66 59 46 48
28 24 24 23 22 19 17 15 15 16 15 14 15 15 18 24 47 90 91 79 99 100 100 98 99 97 98 100 100 100 100 100 96 96 90 90 80 73 63 58 55 50 57 66
30 34 34 29 22 20 18 16 16 15 14 14 14 16 18 27 31 64 99 99 100 100 98 100 100 100 100 100 100 99 96 93 85 86 76 64 69 65 69 69 74 73 61 69
31 27 28 36 36 33 26 20 18 16 15 14 13 15 18 21 34 36 51 93 100 100 100 100 100 100 100 100 100 98 94 93 85 81 84 78 80 83 77 88 84 81 79 73
26 31 37 34 33 30 26 25 24 20 19 17 15 16 16 19 23 31 43 66 94 100 100 100 100 100 100 100 100 100 100 100 100 100 87 89 99 96 96 92 74 80 73 59
28 25 25 31 40 39 39 31 27 24 20 20 17 18 18 18 21 25 36 54 75 91 100 100 100 100 100 100 100 100 100 100 100 100 98 100 100 100 88 79 73 68 48 41
44 40 30 29 37 40 36 42 46 27 25 21 19 21 20 17 18 23 36 48 62 80 100 100 100 100 100 100 100 100 100 100 100 100 100 100 100 95 82 65 58 46 35 32
40 41 43 39 27 40 47 43 41 38 28 24 24 22 22 23 20 20 30 52 92 100 100 100 100 100 100 100 100 100 100 100 100 100 100 100 90 78 65 42 45 33 33 42
47 41 34 35 44 44 37 38 49 38 35 39 28 24 28 24 26 31 32 46 75 87 97 98 100 100 100 100 100 100 96 100 100 95 91 78 63 50 47 37 34 39 47 49
56 53 47 39 35 38 36 44 48 44 43 50 47 42 34 32 29 42 45 56 71 82 100 100 94 88 85 87 99 100 100 100 93 76 65 68 61 40 35 35 42 46 48 51
60 60 55 51 43 36 33 46 59 55 62 63 66 70 62 62 48 35 40 62 67 66 67 77 87 100 100 100 100 100 96 80 77 84 75 57 47 37 37 43 47 48 53 51
60 60 65 63 58 41 46 54 56 70 74 76 80 81 72 64 64 64 56 54 57 63 75 88 97 99 98 93 87 93 87 94 88 76 62 49 43 42 42 47 47 48 50 51
40 64 66 73 65 64 61 58 57 56 59 74 84 79 73 72 75 78 80 89 97 98 97 97 100 99 98 100 99 98 98 98 76 73 52 53 49 45 47 48 46 48 53 55
38 48 73 70 69 68 74 68 64 68 64 66 70 82 85 76 77 83 97 98 100 100 100 100 100 100 100 100 98 100 90 83 85 64 65 61 56 47 50 48 54 59 63 61
37 44 52 71 71 70 80 79 81 77 78 78 72 74 77 93 100 100 100 100 99 100 100 100 100 100 100 100 100 98 83 85 76 72 76 74 70 57 52 54 56 62 68 74
38 42 43 58 72 81 86 79 84 84 80 81 87 81 74 78 92 98 100 97 98 96 97 100 100 100 99 100 100 96 85 85 75 81 79 80 78 73 68 60 56 60 62 66
53 43 44 38 53 68 79 85 77 82 84 88 87 85 92 88 87 95 95 97 97 96 97 99 100 100 100 100 100 91 91 90 82 80 82 83 82 77 74 71 68 64 64 68

GFSCGP_250_rhum_042.txt.gz
RH
14 10 13 12 11 13 20 78 85 100 100 98 93 100 87 76 71 81 93 100 100 100 100 100 100 100 100 100 100 100 100 100 100 100 100 100 100 100 100 100 100 100 100 100
11 12 13 13 11 12 15 24 99 92 100 98 81 88 92 69 70 83 95 85 100 100 100 100 100 100 100 100 100 100 100 100 100 100 100 100 100 100 100 100 100 100 100 100
12 15 14 13 11 11 14 23 30 81 100 98 75 90 100 84 73 71 88 91 95 100 100 100 100 100 100 100 100 100 100 100 100 100 100 99 99 100 100 100 100 100 100 100
9 14 14 14 13 11 13 18 25 37 98 100 95 90 82 85 66 61 62 80 94 100 100 100 100 100 100 100 97 100 100 100 100 100 100 100 100 100 100 100 100 100 98 90
16 16 17 14 14 12 12 14 25 30 54 100 89 69 79 59 51 68 73 70 79 100 100 100 100 100 100 100 91 90 95 100 100 100 100 100 100 100 100 100 100 100 100 94
20 15 16 15 14 15 12 12 15 28 44 65 74 68 75 58 67 50 52 70 73 80 97 100 100 100 100 96 91 93 88 85 90 91 91 93 100 99 99 97 96 96 94 92
19 14 14 16 17 17 14 13 13 15 24 48 64 55 100 69 57 51 46 54 67 73 90 100 100 100 97 98 98 96 90 88 95 92 83 83 86 97 98 98 93 92 95 95
17 18 17 16 18 19 18 15 12 12 14 27 48 40 100 96 74 67 60 51 47 64 80 95 100 100 100 100 98 91 94 96 99 95 96 98 100 100 100 100 100 90 91 88
19 21 20 20 20 18 20 19 18 15 14 15 19 26 78 100 82 72 72 72 63 51 57 83 98 100 100 100 99 96 95 92 92 96 100 100 100 100 100 99 86 87 93 88
23 28 23 21 22 19 17 19 20 19 18 15 16 17 23 94 79 58 66 64 53 59 60 63 83 96 100 100 100 100 100 100 100 100 100 100 96 96 99 98 90 97 100 95
31 29 26 26 25 23 19 17 19 19 20 21 19 16 18 21 54 78 44 30 36 40 50 72 75 84 93 98 99 100 100 100 100 100 100 100 100 100 100 100 100 97 88 77
32 32 33 34 31 27 26 22 19 17 18 21 20 18 16 18 21 27 45 35 40 32 36 42 60 81 91 89 98 100 100 100 100 100 100 100 100 100 100 92 87 75 72 62
34 35 36 34 31 29 27 26 21 17 16 16 18 18 17 16 16 19 20 23 41 37 36 40 44 51 56 58 77 86 95 99 99 97 100 96 94 92 86 80 75 65 59 57
26 28 32 32 30 26 24 22 18 16 17 16 16 16 16 16 15 15 15 17 24 26 28 35 32 40 50 64 86 96 92 89 92 91 93 90 87 92 74 68 74 67 57 69
31 31 29 32 31 31 28 25 22 20 18 18 15 16 16 16 16 16 16 16 20 29 40 36 37 46 67 99 100 100 99 100 97 99 92 98 94 83 81 75 83 80 81 78
34 28 34 40 43 36 30 28 27 23 18 18 17 17 16 15 17 16 15 17 18 19 22 35 53 66 94 100 100 100 100 100 94 100 100 100 100 86 96 84 95 84 79 67
51 32 30 30 32 32 39 26 26 23 24 24 24 19 18 17 16 16 16 17 20 22 26 42 97 100 100 96 100 100 100 96 100 100 100 100 99 100 96 100 91 79 63 45
63 61 45 35 33 31 31 31 30 28 27 30 26 22 22 19 18 17 19 19 19 21 26 38 61 80 81 96 100 99 100 100 100 100 100 100 100 100 100 99 82 56 47 48
50 57 68 61 41 30 29 33 39 28 28 29 28 28 28 23 23 24 20 21 20 20 23 30 49 79 99 100 100 100 100 100 100 99 100 100 100 100 98 70 64 58 41 34
50 56 59 67 62 46 35 35 34 36 36 32 31 42 42 37 30 26 24 24 25 24 25 30 50 80 100 100 100 100 100 100 100 97 96 98 80 92 82 74 65 40 37 40
30 52 60 64 60 64 59 39 32 33 37 42 40 50 57 48 51 42 37 36 37 42 54 61 67 86 98 100 100 100 100 98 97 94 98 100 90 96 75 69 48 40 41 44
25 32 52 61 60 73 67 56 44 50 54 60 55 57 62 72 69 69 60 55 57 58 68 89 96 96 95 95 87 85 90 100 95 100 98 99 93 87 69 55 56 52 45 47
27 26 35 50 64 71 76 72 68 56 62 67 71 70 68 77 80 85 91 84 78 84 82 86 88 90 97 93 93 99 100 100 100 100 100 95 92 77 60 70 77 72 60 53
39 35 32 38 48 64 75 82 88 82 72 60 67 72 78 71 79 88 88 95 98 96 95 96 98 99 100 100 100 100 98 100 100 100 98 98 79 74 70 78 84 79 73 68
54 56 42 42 40 58 63 80 82 91 98 92 83 80 77 79 80 92 99 89 87 91 94 92 94 99 100 100 100 100 99 100 100 100 99 84 79 73 76 77 81 75 73 72
43 48 56 56 46 55 55 60 71 86 89 99 100 94 95 97 94 87 89 97 97 97 94 93 94 99 100 100 100 100 100 100 100 100 99 91 81 79 84 77 74 75 74 68

GFSCGP_250_rhum_045.txt.gz
RH
10 10 13 15 16 15 14 16 29 26 51 62 100 94 100 100 78 60 90 100 100 100 100 100 100 100 100 100 100 96 88 86 85 83 90 100 100 100 100 100 100 100 100 100
10 13 15 15 17 16 14 15 19 28 48 44 72 83 100 100 99 68 54 82 96 97 97 100 100 100 100 100 100 100 100 100 100 100 100 100 100 100 100 100 100 100 100 100
9 14 15 16 17 16 15 14 17 24 32 74 45 43 97 100 100 83 72 63 76 91 96 98 100 100 100 100 100 100 100 100 100 100 100 100 100 100 100 100 100 100 100 100
10 15 15 18 19 18 16 14 15 19 30 96 70 49 81 100 100 84 73 72 69 74 87 92 99 100 100 100 100 100 100 100 100 94 100 100 100 100 100 100 100 100 100 100
12 12 16 18 19 18 17 14 15 18 26 47 76 60 77 91 100 100 79 61 68 67 68 85 90 96 100 100 100 100 100 100 100 100 100 100 100 100 100 100 100 98 96 92
15 12 15 16 18 20 17 16 14 16 18 34 43 49 89 65 98 97 77 59 53 61 71 69 81 88 100 100 100 100 100 100 100 100 100 100 100 100 100 100 100 100 100 100
14 16 15 18 21 19 20 18 15 14 16 21 35 31 94 77 88 86 80 58 54 59 68 77 85 90 83 92 100 100 100 100 100 100 100 100 100 100 100 100 100 98 99 99
23 22 20 18 20 26 24 23 18 15 15 19 27 28 97 66 58 73 74 66 39 42 56 74 87 86 96 100 100 100 100 100 100 100 100 100 100 100 100 100 94 97 100 98
22 25 23 20 21 21 24 22 21 17 15 15 18 29 74 97 66 75 68 58 63 38 31 45 64 79 84 88 90 94 99 100 100 100 100 100 100 100 100 100 100 100 97 100
23 22 22 27 25 22 21 26 24 21 18 16 16 18 24 58 82 82 68 64 43 33 27 23 34 54 74 88 93 94 96 100 100 100 100 100 100 100 100 100 100 100 100 100
28 25 25 28 31 30 29 25 26 27 23 21 18 17 18 29 36 35 58 65 52 37 25 18 20 28 41 58 70 81 87 93 100 100 100 100 100 100 100 100 100 100 100 100
23 24 28 31 34 34 31 30 22 21 26 27 27 24 22 22 47 51 35 41 42 45 30 28 27 28 28 32 38 48 62 74 86 92 100 100 100 100 100 100 100 100 99 100
29 32 27 31 28 28 26 24 22 21 22 24 28 32 25 21 21 24 41 45 28 28 25 24 20 19 17 20 24 32 36 36 40 46 63 74 82 90 99 100 99 95 84 87
27 26 26 22 26 20 18 18 19 20 21 20 22 24 23 21 20 17 16 17 25 31 20 19 20 18 18 20 23 30 35 36 40 48 54 74 74 81 86 82 86 68 69 72
34 31 28 29 27 21 20 22 23 22 19 19 18 20 20 20 19 20 19 17 16 16 16 16 16 21 25 21 23 26 36 48 51 66 80 80 72 79 100 94 75 71 69 63
32 32 39 41 38 43 40 34 32 26 21 20 18 18 16 17 17 17 17 16 16 15 14 14 14 15 16 24 42 60 74 81 75 83 83 93 93 78 100 96 97 75 86 98
60 48 36 36 31 34 49 35 37 32 28 23 24 18 18 16 15 14 15 16 17 18 18 17 17 17 18 20 22 32 54 80 100 100 100 100 79 100 100 98 86 97 100 100
51 52 63 48 44 51 39 33 34 31 27 28 26 18 19 18 16 16 16 16 15 14 15 18 19 19 20 20 19 24 51 82 100 100 86 93 100 100 99 96 100 100 100 98
42 52 53 63 63 54 44 39 40 41 31 30 31 26 26 22 20 18 17 18 17 17 17 18 18 18 20 24 30 36 32 33 45 77 100 100 100 99 94 85 98 100 100 83
30 40 53 52 66 72 60 55 46 47 34 37 42 33 32 31 23 21 23 21 19 18 20 21 21 22 26 33 39 48 56 84 100 100 100 100 100 100 100 100 100 99 79 86
26 27 34 46 47 55 70 73 65 54 46 48 42 44 42 42 38 40 31 31 28 24 22 23 24 27 40 79 100 100 100 100 100 97 98 100 100 100 100 100 98 92 84 78
24 25 30 36 48 51 52 64 74 71 52 42 47 53 39 47 68 61 52 47 49 43 44 38 36 34 34 46 53 58 80 100 100 100 100 100 100 100 100 100 90 85 91 66
37 33 31 31 36 49 57 59 63 77 72 50 47 52 56 66 68 68 66 71 61 61 64 69 64 63 70 72 70 73 85 100 92 96 100 100 100 100 100 95 94 93 82 69
36 32 28 29 27 35 51 63 64 64 76 82 78 76 78 79 83 78 77 85 84 84 80 88 90 94 95 100 100 100 100 100 100 100 96 100 100 100 100 100 94 93 79 71
46 50 44 48 37 45 51 73 86 78 72 85 96 91 91 95 95 94 89 91 98 98 99 98 89 85 92 97 100 100 100 100 100 99 100 100 100 100 100 100 89 92 83 76
37 44 52 56 50 54 41 49 65 78 88 83 85 96 97 92 96 94 100 96 96 99 99 100 100 99 99 96 95 96 99 100 100 98 100 100 100 100 100 99 100 90 87 81

GFSCGP_250_rhum_051.txt.gz
RH
8 10 12 12 14 18 21 22 22 23 22 23 19 19 20 18 15 14 19 52 90 100 98 91 90 100 100 100 100 100 93 88 78 95 100 96 92 92 94 95 98 98 97 92
10 11 12 13 14 17 19 22 19 18 19 20 21 19 19 19 17 12 14 24 79 100 100 100 100 99 100 100 100 100 100 100 91 78 98 100 95 93 97 100 98 94 100 100
12 12 13 14 12 13 18 20 20 20 19 19 18 16 21 28 24 17 14 20 51 92 100 100 100 100 100 100 100 100 100 100 100 96 100 100 100 100 100 100 100 100 100 100
15 16 14 14 12 12 16 18 19 18 18 20 17 18 26 27 22 22 24 29 57 86 100 100 100 100 100 100 100 100 100 100 100 100 99 100 100 100 100 100 100 100 100 98
15 17 16 14 14 15 14 17 17 18 19 17 17 19 23 24 30 46 50 35 50 93 100 100 100 100 100 100 100 100 100 100 100 100 100 100 100 100 100 100 96 88 86 95
12 15 15 15 14 16 17 18 18 18 18 17 18 18 28 24 26 44 31 62 70 54 98 100 100 100 100 100 100 100 100 100 100 100 100 100 100 100 100 100 100 100 100 100
10 13 16 17 19 18 17 17 18 17 17 19 20 18 33 24 26 28 81 64 84 71 39 94 100 100 100 100 100 100 100 100 100 100 100 100 100 100 100 100 100 100 100 100
13 20 23 23 21 20 20 21 22 21 22 21 22 23 30 26 23 23 27 99 85 57 50 45 74 100 100 99 100 100 100 100 100 100 100 100 100 100 100 100 100 100 100 100
19 26 30 31 26 23 25 24 27 24 23 24 22 24 31 27 22 20 22 25 93 97 98 71 44 40 85 100 97 98 100 100 97 98 96 96 100 100 100 100 100 100 100 100
26 32 38 37 34 30 25 26 30 30 26 27 27 25 29 31 28 25 22 24 31 72 84 99 83 79 49 44 65 86 93 96 100 100 99 100 100 100 100 100 100 100 100 100
31 40 41 40 46 42 31 27 29 35 34 33 36 30 31 32 32 29 24 21 24 36 50 82 100 73 53 58 53 47 54 67 74 75 75 76 78 79 82 86 91 95 100 100
29 37 45 56 58 51 43 36 38 36 40 38 44 38 34 35 34 30 27 23 20 21 31 40 53 78 60 38 32 45 50 49 54 67 71 70 72 74 79 87 93 91 100 100
23 28 31 44 46 51 45 42 35 36 40 39 40 53 46 43 31 30 28 25 22 21 20 22 29 41 61 61 43 28 20 19 26 38 47 54 60 62 57 60 64 63 70 71
20 24 30 33 41 47 50 45 41 37 47 45 49 50 54 32 24 26 28 25 23 20 17 16 17 19 25 31 36 33 26 22 20 21 22 23 26 31 34 35 38 46 46 46
20 21 23 26 27 30 35 37 37 36 37 26 72 29 37 21 18 19 22 24 22 20 18 16 16 16 16 18 19 20 20 21 20 19 19 20 20 22 24 28 33 34 30 33
24 22 21 22 24 24 27 26 25 27 27 28 30 29 30 25 22 23 20 19 19 22 22 19 17 15 15 15 14 15 16 17 18 18 18 19 19 18 18 20 27 38 37 44
34 40 30 27 24 25 24 21 25 26 25 26 28 28 21 23 24 26 26 26 25 23 21 20 19 18 16 15 15 14 14 14 14 14 15 18 21 22 33 49 74 98 100 100
37 43 46 45 49 37 29 27 30 28 23 28 32 25 24 24 25 25 24 23 22 20 20 21 21 20 19 19 18 16 16 15 15 16 16 17 20 23 48 78 68 85 100 100
32 34 40 48 64 71 61 45 35 27 25 33 34 30 26 24 27 30 23 21 22 23 24 24 22 22 21 21 21 21 20 20 20 20 20 20 19 20 27 42 41 30 46 65
29 31 29 28 35 47 53 63 66 55 47 44 38 37 34 33 40 31 27 27 32 30 27 22 22 21 21 20 20 20 19 20 20 22 23 23 24 24 26 27 30 31 36 74
26 34 40 44 35 28 39 55 66 77 79 72 64 58 51 44 46 35 30 47 51 38 40 39 29 24 22 21 20 19 19 19 20 23 25 26 27 28 28 29 35 57 93 100
22 23 32 38 36 36 40 38 50 65 64 70 73 68 56 47 48 47 37 48 48 39 46 60 46 34 30 26 22 21 20 21 21 23 23 25 26 28 31 46 55 91 89 85
24 29 35 39 45 44 45 42 39 41 48 60 65 76 73 67 59 49 41 40 46 43 45 77 63 56 47 40 35 31 27 26 27 29 29 30 41 49 58 74 81 88 87 93
30 46 42 39 38 42 44 43 38 36 35 46 63 64 66 68 69 60 45 38 41 50 50 76 79 86 80 62 52 44 41 39 37 36 39 53 54 57 67 74 100 100 100 100
30 37 40 46 54 70 58 63 65 57 48 41 46 60 75 70 67 70 48 39 47 64 76 79 81 84 85 82 66 62 60 59 67 73 74 72 80 86 88 100 100 100 100 100
31 39 42 48 62 59 53 71 85 84 72 66 55 52 63 85 87 74 69 56 75 91 91 90 89 85 88 94 85 79 88 90 91 90 91 94 98 99 100 100 100 100 100 100

GFSCGP_250_rhum_054.txt.gz
RH
8 7 10 13 14 13 14 20 21 22 23 23 19 19 21 22 29 46 79 92 97 100 100 100 100 100 100 100 98 100 100 100 100 87 74 67 81 73 75 86 89 92 93 95
9 10 10 13 15 15 16 17 22 22 23 22 23 20 19 21 22 20 22 53 85 98 100 100 99 100 100 100 92 100 100 100 100 100 100 95 95 95 77 84 95 96 94 96
12 11 13 14 15 15 17 18 22 25 24 18 21 22 21 21 20 22 24 23 31 77 98 100 100 100 100 100 97 100 100 100 100 100 100 100 99 98 88 80 92 100 100 100
14 12 12 14 15 17 19 18 20 22 24 22 18 20 23 22 20 22 23 26 21 23 54 90 100 100 98 94 99 97 100 100 100 100 100 100 100 100 100 98 100 100 100 100
15 12 12 14 16 18 17 20 19 21 21 21 18 20 23 25 26 23 23 24 24 20 20 26 59 99 100 100 98 100 100 100 100 100 100 100 100 100 100 100 100 100 100 100
14 16 14 13 15 17 17 19 18 19 19 22 22 21 25 25 24 23 23 22 26 22 18 17 21 34 86 100 100 100 100 100 100 100 100 100 100 100 100 100 100 100 100 100
15 19 20 16 15 16 15 15 16 16 21 24 24 22 29 23 22 21 22 23 25 25 23 20 18 27 36 97 100 100 100 100 100 100 100 100 100 100 100 100 100 100 100 100
9 14 16 18 18 16 15 15 18 22 26 30 25 23 30 28 22 21 20 20 23 27 30 24 21 25 54 54 99 100 100 100 100 100 100 100 100 100 100 100 100 100 100 100
15 16 22 28 27 24 21 19 22 23 24 24 22 20 25 25 22 22 22 22 21 24 29 30 30 33 42 72 81 94 100 100 100 100 100 100 100 100 100 100 100 100 100 100
32 31 32 34 37 36 33 30 26 23 24 22 22 21 22 25 26 23 22 22 21 24 31 39 53 47 47 47 70 86 85 100 100 100 100 100 100 100 100 100 100 100 100 100
31 40 41 44 42 45 40 36 33 34 33 28 26 22 23 22 23 24 21 21 22 25 29 32 40 59 62 58 44 56 78 74 83 100 100 100 100 100 100 100 100 100 100 100
31 40 47 48 55 57 58 54 48 44 44 36 32 29 25 22 23 24 24 22 23 23 27 29 31 64 90 84 76 72 49 59 68 93 100 100 100 100 100 100 100 100 100 100
28 41 52 67 62 69 64 57 53 47 48 51 50 41 35 29 22 21 22 25 24 24 24 26 30 32 36 94 93 73 56 44 42 48 58 76 94 100 100 100 100 100 98 93
18 31 47 53 55 54 56 53 51 48 56 62 58 51 41 28 21 18 22 23 23 22 24 26 26 27 28 30 40 91 96 56 41 44 45 46 42 39 40 50 60 67 68 79
17 19 27 39 44 53 51 46 43 44 43 48 47 38 33 20 17 18 19 21 24 23 23 23 23 22 23 23 23 24 28 50 70 56 41 36 29 27 28 29 30 31 34 39
19 22 21 24 30 37 42 40 37 37 31 31 31 35 29 20 19 18 20 20 24 24 23 22 20 20 20 20 19 19 20 22 26 28 38 47 55 44 40 32 27 29 33 36
30 28 25 25 24 26 27 24 27 29 27 33 36 38 25 27 26 28 24 23 24 20 19 19 21 23 23 23 22 21 18 17 17 18 19 22 25 27 28 28 27 28 24 22
15 20 32 36 30 26 26 28 29 27 27 29 29 29 32 34 34 34 29 27 25 25 26 26 26 25 23 22 21 21 21 20 19 17 16 16 16 16 18 17 17 18 18 18
21 21 21 25 28 36 43 43 41 36 39 42 40 38 36 36 36 29 30 34 31 27 27 27 26 24 23 22 22 21 21 21 21 21 20 18 17 17 16 16 17 18 18 19
22 24 31 34 31 31 37 50 61 62 80 87 68 49 40 42 46 28 42 35 32 34 33 31 30 28 28 27 26 24 22 22 21 21 21 21 20 20 20 22 22 22 22 22
21 23 26 31 34 41 51 48 45 40 63 69 65 72 68 64 66 42 39 46 50 41 50 50 34 34 36 31 29 26 24 21 20 19 19 20 21 23 23 23 24 24 26 27
21 24 26 31 33 42 42 49 43 42 42 49 59 68 74 80 75 73 58 56 55 50 41 47 43 52 47 44 41 36 29 25 22 20 20 20 20 20 20 22 23 25 30 31
18 22 27 29 32 35 40 44 47 45 42 41 38 65 68 75 83 80 74 66 60 58 51 44 45 50 69 55 52 47 38 33 28 24 22 23 23 23 23 25 26 28 31 32
14 17 20 22 26 34 34 38 52 57 43 45 43 38 53 62 80 76 76 73 68 64 56 54 59 53 75 78 72 62 52 42 36 33 32 29 29 29 29 32 35 40 44 47
12 14 17 20 26 32 36 48 62 65 62 53 48 41 42 54 60 80 87 77 75 74 65 54 56 68 71 83 80 75 68 59 52 49 44 51 50 47 48 63 71 74 81 82
14 15 17 16 25 26 28 44 52 53 67 77 60 57 53 49 52 66 79 86 80 78 70 59 69 79 78 86 81 82 83 83 84 87 85 83 80 80 81 84 90 92 92 88

GFSCGP_250_rhum_057.txt.gz
RH
7 7 7 9 14 16 20 21 20 22 21 21 23 21 20 21 40 24 36 89 100 91 100 100 100 100 100 100 100 100 100 100 100 100 100 95 98 91 81 72 64 65 70 75
6 9 9 10 12 14 17 18 21 22 21 24 26 25 20 21 26 64 43 80 100 100 100 100 100 100 100 100 100 100 100 100 100 100 100 100 91 92 80 67 71 70 76 86
6 11 11 11 13 16 16 19 23 22 23 23 27 26 23 21 22 25 83 78 94 100 100 100 100 100 100 100 100 100 100 100 100 100 100 100 100 100 98 88 97 90 89 81
8 14 13 13 14 15 16 16 17 20 23 24 24 23 28 24 23 24 24 95 85 94 100 100 100 100 100 100 100 100 100 100 100 100 100 100 100 100 92 100 100 100 99 87
6 14 15 14 16 16 17 17 17 22 21 24 23 24 27 29 27 23 23 23 79 97 86 90 100 100 100 100 100 100 100 100 100 100 100 100 100 100 100 100 100 99 96 100
10 15 17 14 14 16 17 19 18 19 18 21 24 24 26 25 27 25 24 23 25 51 92 48 83 100 100 100 100 100 100 100 100 100 100 100 100 100 100 100 100 100 100 100
10 17 18 15 16 17 18 18 17 17 20 24 25 25 25 24 26 28 26 24 24 25 29 62 27 44 89 100 100 100 100 100 100 100 100 100 100 100 100 100 100 100 100 100
12 16 18 15 15 17 18 19 21 22 24 26 27 23 24 25 22 22 25 28 25 24 25 26 26 28 22 24 45 84 98 94 95 100 100 100 100 100 100 100 100 100 100 100
17 23 24 19 17 16 19 19 20 24 26 29 33 26 30 24 21 20 23 23 27 27 24 23 24 25 25 22 21 21 28 49 66 71 91 100 100 100 100 100 100 100 100 100
19 28 28 31 24 21 21 22 23 23 24 29 34 29 28 29 24 27 25 24 24 27 28 26 23 24 24 27 23 20 20 21 25 35 44 62 88 100 100 100 100 100 100 100
22 26 34 38 35 30 24 22 23 24 29 28 26 24 26 29 26 27 26 23 21 23 26 27 26 24 26 27 28 27 24 23 23 23 25 29 52 77 89 100 99 100 100 100
26 35 37 39 43 45 44 40 32 27 32 28 27 26 26 26 24 21 21 19 18 18 22 23 23 26 26 29 29 30 29 28 28 27 29 27 42 66 76 81 90 100 100 100
23 30 40 50 53 56 58 58 51 43 38 33 30 30 30 24 21 18 17 18 18 19 20 23 24 23 26 27 29 31 33 34 35 50 42 35 32 35 49 61 75 93 100 100
20 26 35 46 51 55 62 63 63 60 63 57 51 43 30 24 20 17 18 19 19 20 21 23 25 24 24 25 27 29 36 38 43 44 53 47 35 28 28 38 62 80 88 91
17 21 26 39 48 53 64 66 72 73 56 46 45 35 28 26 22 23 20 21 19 18 17 16 17 19 20 21 24 25 28 31 37 59 69 54 47 39 37 26 35 44 53 65
18 21 20 29 38 41 49 58 56 58 56 53 51 43 38 33 31 24 21 17 18 18 18 18 16 17 18 17 18 19 22 25 28 30 30 34 73 50 35 42 34 37 37 46
25 22 24 26 28 28 32 30 33 37 42 40 43 43 38 34 30 24 19 18 19 23 21 18 18 20 20 21 22 23 23 24 25 26 26 26 28 29 41 38 33 33 30 30
20 24 33 29 29 27 32 31 36 41 45 53 55 57 47 41 36 32 34 32 31 27 26 25 23 22 23 22 22 23 24 25 25 24 24 25 26 25 24 23 23 24 24 25
16 19 21 22 31 38 34 36 38 39 42 46 49 49 50 49 45 32 38 37 35 31 26 27 29 31 28 26 24 24 22 22 22 23 24 25 25 26 26 24 22 21 20 19
16 19 22 23 23 23 44 46 54 50 48 48 45 44 44 42 42 30 31 32 33 29 26 26 27 28 27 27 26 27 28 27 26 25 24 24 24 24 24 24 25 25 24 23
12 15 20 24 25 30 43 30 26 25 43 66 70 65 61 53 49 38 33 39 52 52 51 47 42 39 33 31 30 27 25 25 25 23 22 22 21 21 21 22 23 25 26 27
16 15 17 21 24 28 34 42 42 43 45 48 40 42 50 63 68 80 63 53 47 46 44 44 49 55 45 43 50 45 42 36 31 29 25 22 20 20 19 20 20 22 24 26
19 17 16 19 25 33 36 41 48 53 51 49 46 49 49 49 62 71 82 76 74 70 65 57 50 47 48 50 55 60 59 58 54 49 40 32 28 26 24 23 23 22 22 23
22 19 17 17 17 22 28 38 44 51 52 54 62 51 56 49 41 54 78 80 83 91 91 86 76 62 55 56 57 56 66 75 70 61 56 47 41 39 37 31 27 26 26 28
30 23 17 17 18 18 20 30 41 50 52 50 53 57 50 62 44 46 44 63 75 83 92 93 95 90 82 72 69 67 69 79 78 72 72 62 55 52 47 46 46 42 41 44
31 30 26 18 17 17 20 28 38 39 42 55 54 52 62 68 69 56 50 45 51 68 76 82 92 94 90 78 72 70 72 81 84 79 87 83 70 64 59 68 70 64 61 64

GFSCGP_250_rhum_063.txt.gz
RH
2 4 6 8 8 8 10 11 15 19 15 14 16 22 23 26 26 25 20 19 29 42 86 100 100 100 100 100 100 100 100 100 100 100 100 100 100 100 100 96 100 100 100 100
3 4 7 8 7 9 10 11 17 16 17 18 17 22 24 25 27 26 21 20 22 30 52 97 100 100 100 100 100 100 100 100 100 100 100 100 100 100 100 100 100 100 100 100
3 4 5 9 8 10 9 13 16 19 18 15 16 16 26 28 29 26 26 22 20 22 23 50 94 100 100 100 100 100 100 100 100 100 100 100 100 100 97 94 100 100 100 100
3 3 5 8 8 11 13 15 20 21 18 17 16 18 18 28 28 27 27 26 22 20 19 18 21 30 65 100 100 100 100 100 98 100 100 100 100 100 100 100 100 100 100 100
4 5 10 11 14 11 15 18 20 22 26 20 15 17 15 19 25 32 33 28 27 25 22 20 21 22 25 42 69 100 100 100 100 99 92 99 100 100 100 100 100 100 100 100
4 6 7 10 12 12 13 19 20 27 20 12 11 12 16 19 21 30 33 33 31 34 58 26 27 27 32 35 37 57 86 100 100 100 100 100 100 100 100 100 100 100 100 100
4 5 7 9 13 13 14 18 24 20 14 16 15 12 16 19 26 32 34 33 31 32 51 86 62 77 58 49 41 54 72 81 99 100 100 100 100 100 100 100 100 95 100 100
5 5 8 11 17 17 17 16 17 16 14 14 18 21 21 23 26 27 31 35 35 35 35 32 90 100 90 72 59 50 55 54 62 80 90 100 100 100 100 100 100 100 100 100
5 7 13 17 24 21 18 18 20 18 16 18 18 20 20 28 33 33 32 35 37 32 33 32 33 91 100 100 66 50 47 53 52 46 50 58 69 84 94 100 100 100 100 100
8 11 13 15 20 24 21 22 26 22 22 23 21 18 19 23 30 30 28 26 32 34 32 35 35 36 39 100 100 100 100 86 67 62 68 60 59 60 68 66 58 62 87 98
9 13 15 19 21 24 24 21 20 23 25 24 20 20 22 20 20 23 30 29 31 33 34 32 34 38 39 37 65 100 100 100 100 100 100 91 62 50 58 67 75 75 81 81
11 12 17 19 24 25 25 23 22 21 24 26 28 29 27 23 21 21 25 30 32 32 35 33 32 35 39 41 37 33 34 36 36 34 35 72 100 100 92 61 55 49 64 83
12 15 22 23 28 28 27 24 22 22 22 26 28 29 30 26 22 20 21 25 28 31 33 32 32 32 33 38 40 38 34 32 31 30 29 30 31 41 56 62 75 88 82 75
14 14 17 21 22 27 27 26 25 23 24 24 25 25 24 25 25 24 23 23 21 21 20 22 26 28 29 30 30 32 36 37 37 36 34 33 32 30 28 28 28 29 28 28
18 18 16 19 23 28 30 32 29 28 24 26 25 25 24 28 32 31 29 24 22 22 20 17 17 19 22 27 30 30 29 28 28 30 33 35 36 36 36 34 30 28 29 28
15 20 24 23 21 25 39 42 42 37 32 32 28 29 28 38 37 30 25 25 25 25 24 22 18 17 16 16 18 20 23 25 26 26 26 25 25 26 28 30 30 29 29 29
17 14 16 21 26 31 30 27 42 45 49 55 54 49 45 37 29 26 26 22 21 22 21 22 22 20 20 19 16 17 18 18 18 18 18 19 20 21 22 24 25 26 26 28
25 22 17 17 21 28 29 34 34 34 39 44 44 43 39 38 34 31 29 28 27 25 23 23 23 22 22 23 24 21 21 22 21 20 20 18 17 16 17 17 18 19 20 20
34 33 31 25 21 24 25 28 34 37 39 39 37 40 43 46 42 36 38 39 42 49 53 53 49 45 41 40 43 40 32 28 23 21 20 18 19 20 19 19 18 18 19 19
45 41 48 50 39 26 23 20 19 23 35 36 42 44 45 49 57 41 49 49 48 51 49 46 52 50 45 40 37 37 36 31 29 26 24 25 24 23 23 24 22 22 22 22
50 60 54 51 51 45 41 28 26 28 42 42 37 40 46 52 53 50 42 37 38 38 39 43 39 32 30 33 34 34 34 36 33 34 34 31 28 28 27 25 24 24 23 22
50 50 57 65 57 48 43 42 32 24 25 33 42 45 46 49 55 65 67 65 60 70 65 56 49 51 47 41 40 38 29 29 30 30 32 32 32 32 31 29 27 25 24 24
53 53 52 47 65 53 50 47 39 38 32 22 26 37 50 51 54 58 56 56 58 57 66 89 90 88 76 70 62 55 44 35 35 38 37 38 40 38 36 30 28 29 29 28
51 55 57 62 50 55 57 44 42 34 31 34 24 22 30 46 55 56 53 55 60 64 69 64 59 67 67 80 77 76 75 66 53 47 46 46 43 42 40 39 45 44 45 49
57 57 46 50 57 55 64 66 52 47 36 27 33 28 20 25 33 48 50 46 47 49 57 66 65 64 56 51 60 66 68 77 81 82 76 66 61 61 61 55 53 62 66 68
56 56 62 47 49 42 65 53 54 50 46 29 22 25 31 24 24 37 52 56 48 46 54 62 68 64 67 67 56 50 53 75 84 87 84 85 85 78 71 70 69 79 82 84

GFSCGP_250_rhum_066.txt.gz
RH
2 3 4 5 6 7 10 11 12 13 13 15 24 30 31 28 33 29 30 100 100 100 100 100 100 100 100 100 100 100 99 100 83 83 96 100 100 100 98 89 76 88 84 93
2 3 4 6 8 7 9 11 13 11 14 10 17 30 24 28 30 40 33 51 100 100 100 100 100 100 100 100 100 100 100 100 100 80 80 100 100 100 100 100 100 100 98 100
2 3 4 6 8 7 9 13 13 16 18 17 9 16 13 18 31 34 52 29 36 74 100 100 100 100 100 100 100 100 100 100 100 100 100 100 100 100 100 100 98 100 100 95
2 3 4 6 10 10 11 14 12 11 20 22 11 11 13 14 22 34 33 47 28 26 81 100 100 100 100 100 100 98 100 100 100 94 98 100 100 100 100 100 100 100 99 100
3 3 3 7 14 13 12 13 13 13 16 20 18 11 12 12 18 26 33 36 46 28 25 42 78 100 100 100 100 100 100 100 100 100 97 100 100 100 100 100 100 100 100 100
3 4 5 10 15 13 11 14 13 14 17 17 15 10 12 11 15 22 29 34 37 37 28 25 32 59 92 100 100 100 100 100 100 100 100 100 100 100 100 100 100 100 100 100
4 6 7 10 13 17 15 17 17 19 25 20 14 12 13 11 16 19 26 38 39 39 41 43 26 25 28 35 75 100 100 100 100 100 100 100 100 100 100 100 100 100 100 100
5 6 5 8 16 20 16 16 17 19 22 21 18 18 20 19 19 19 23 29 38 40 40 40 74 39 26 24 24 42 62 79 100 100 100 100 100 100 100 100 100 100 100 100
5 6 6 12 19 20 19 19 15 21 25 25 22 24 30 34 26 19 19 24 31 36 40 42 37 37 35 31 27 24 23 29 74 97 97 97 98 100 100 100 100 100 100 100
5 8 10 18 20 25 26 24 25 19 19 24 24 22 21 22 19 16 22 19 20 24 30 38 44 42 37 35 35 30 26 26 25 26 28 30 29 34 46 66 82 98 100 100
6 7 8 15 22 28 29 24 24 25 22 19 17 19 19 21 20 20 20 21 21 21 24 32 41 47 48 44 39 39 58 58 36 39 44 52 51 61 62 62 70 70 60 70
7 8 10 11 16 22 25 26 24 23 19 19 20 23 22 20 22 26 30 31 32 30 30 32 36 40 47 46 46 44 38 38 63 100 100 99 85 76 73 63 62 66 63 55
12 11 12 12 12 16 24 28 26 23 22 19 20 22 22 21 22 22 23 23 25 28 30 30 32 36 35 38 42 43 43 42 39 39 64 80 100 100 100 100 100 92 76 86
15 15 16 15 16 17 25 29 30 29 27 24 22 22 23 22 20 20 21 22 23 25 26 28 28 30 32 32 30 31 37 40 40 41 41 40 38 44 49 67 91 100 100 100
12 17 19 21 20 20 21 24 29 28 26 26 24 22 24 24 23 22 24 21 20 20 19 21 22 24 24 28 30 32 34 35 36 36 36 38 40 39 40 41 40 38 37 35
16 14 16 23 26 25 28 30 32 28 29 28 24 24 28 31 32 28 21 19 20 22 22 19 18 19 20 22 23 26 29 31 32 35 36 35 35 36 38 40 40 40 40 41
27 24 20 18 20 24 25 29 29 31 35 32 29 25 25 24 23 24 26 26 23 23 25 24 23 22 20 21 20 19 19 19 20 20 22 26 30 33 34 34 35 35 34 33
27 33 33 33 30 24 21 23 29 34 37 37 36 36 36 33 29 27 24 22 20 20 21 21 21 22 22 22 22 22 18 17 19 20 22 24 23 23 24 24 26 26 27 27
55 56 41 37 37 37 38 36 28 22 32 44 46 42 40 35 36 42 45 46 44 41 42 40 33 32 28 25 27 32 34 30 29 28 27 25 23 21 21 21 20 20 19 18
48 54 64 74 65 56 56 46 38 43 35 27 38 49 56 56 50 44 44 45 49 52 56 53 47 48 58 54 52 50 51 44 34 32 28 26 24 20 18 17 17 17 17 18
43 44 51 60 67 74 83 80 57 60 45 36 35 32 33 39 43 40 42 47 51 48 46 46 42 35 37 40 39 41 44 45 38 35 35 32 32 31 28 27 26 25 24 23
46 42 54 51 59 70 73 73 74 64 54 45 34 34 32 28 28 34 32 30 34 41 48 52 58 51 40 32 29 29 30 34 36 35 33 34 33 33 34 35 34 34 32 31
49 50 50 53 46 53 64 73 67 70 48 45 36 28 27 27 28 23 24 28 34 40 39 44 52 52 49 58 57 51 41 37 36 36 35 33 34 33 30 29 29 30 29 28
48 46 46 50 47 61 61 70 72 67 57 45 35 32 26 23 27 27 25 22 26 32 42 50 53 59 52 50 49 51 52 58 64 68 71 69 59 49 44 42 45 48 44 41
42 47 48 50 52 60 62 70 74 68 60 53 52 37 24 21 20 23 28 28 25 27 31 39 51 60 59 62 70 74 65 61 59 59 60 69 76 77 76 71 63 62 57 54
50 41 48 44 49 54 61 69 74 81 64 66 38 38 33 20 18 15 17 27 29 26 27 28 36 52 60 67 64 67 77 74 73 66 57 55 63 76 82 88 90 87 79 83

GFSCGP_250_rhum_069.txt.gz
RH
2 3 4 4 4 4 4 5 6 10 16 12 18 18 25 94 100 97 100 100 100 100 100 100 100 100 100 100 100 100 100 100 100 100 100 100 100 94 72 97 100 100 100 100
2 3 4 4 5 5 5 7 9 8 16 8 20 18 24 34 100 100 100 100 100 100 100 100 100 100 100 100 100 100 99 95 100 100 100 100 89 98 92 72 84 100 100 100
2 3 4 5 6 6 5 8 10 10 17 12 39 16 22 39 48 100 100 100 100 100 100 100 100 100 100 100 100 100 100 94 94 100 95 100 98 78 92 98 100 100 100 100
2 3 4 6 9 9 8 12 10 11 15 15 22 23 11 23 44 100 100 100 100 100 100 100 100 100 100 100 99 100 100 100 100 100 100 100 100 100 100 98 100 99 81 95
2 4 5 6 6 11 10 16 27 17 17 22 18 34 20 20 27 52 100 100 100 100 100 100 100 100 100 100 100 100 100 100 100 100 100 100 100 100 100 100 100 100 100 100
2 4 5 6 12 13 16 17 26 24 21 22 16 24 29 22 18 26 39 71 77 82 100 100 100 100 100 100 100 100 100 100 100 100 88 99 100 100 100 100 100 100 100 100
3 3 4 6 10 12 14 21 23 27 25 37 21 12 21 30 26 17 28 39 50 60 53 55 100 100 100 100 100 100 100 100 100 100 100 100 100 100 100 100 100 100 100 100
4 5 6 10 15 19 16 15 18 27 29 30 30 18 13 22 32 13 12 23 39 47 58 54 45 99 100 100 100 100 100 100 100 100 100 100 93 99 100 100 100 100 100 100
4 6 9 15 16 19 22 21 14 18 22 28 23 19 22 19 16 12 12 13 22 37 49 53 75 48 42 86 100 100 100 100 100 100 100 100 100 100 100 100 100 100 100 100
4 6 9 12 15 22 18 24 23 20 21 20 18 18 15 14 12 12 13 13 14 18 29 46 53 79 91 58 48 87 100 100 100 100 100 100 100 100 100 100 100 100 100 100
4 7 10 18 22 28 32 25 22 28 33 31 24 23 22 22 20 19 19 22 24 20 18 23 35 47 54 76 87 77 57 50 69 100 100 100 100 100 100 100 100 100 100 100
7 6 8 10 16 21 23 28 30 28 26 24 30 28 16 21 24 26 30 34 34 26 26 26 23 32 40 49 53 65 67 59 49 40 34 38 64 100 100 100 100 100 100 100
9 10 10 10 12 16 21 24 25 24 26 28 25 24 21 21 21 25 27 27 24 22 20 19 21 21 23 31 40 49 54 54 49 44 48 53 51 52 36 31 30 31 35 42
12 15 16 16 16 16 18 23 27 28 24 22 20 23 22 20 22 23 22 24 27 28 28 28 28 26 24 24 26 32 39 47 50 49 47 46 48 49 46 41 38 38 44 51
12 12 14 18 23 27 28 24 22 25 28 29 27 23 20 20 19 20 21 22 22 22 24 23 23 24 24 24 24 22 23 25 30 37 43 48 48 47 45 44 43 43 45 44
23 26 20 18 20 23 24 31 40 37 34 35 34 32 28 27 25 24 25 24 21 19 20 20 20 22 22 24 25 24 23 22 23 22 24 26 29 36 44 48 49 47 44 42
30 32 31 36 33 26 21 18 22 26 33 43 48 43 39 34 30 27 26 26 27 26 24 23 21 20 20 20 20 21 21 23 24 26 27 27 28 29 31 31 33 33 35 39
46 44 49 44 42 38 35 33 33 26 21 22 25 30 41 47 45 38 32 28 25 24 24 26 26 24 22 21 21 21 21 20 20 21 21 20 22 24 26 28 30 33 35 37
54 41 41 46 54 74 68 61 50 44 36 34 30 22 25 32 39 49 57 53 47 41 34 29 26 25 23 21 22 22 22 25 23 20 22 22 21 23 28 27 22 22 22 22
53 62 56 56 58 42 66 78 85 76 75 68 48 33 28 24 21 25 32 36 41 51 53 52 51 49 48 46 46 46 46 50 48 39 36 31 31 31 27 22 20 19 17 16
40 46 51 55 63 61 61 64 67 62 66 73 64 50 36 30 29 28 24 20 25 31 36 45 53 52 48 46 45 45 48 50 48 43 36 32 33 30 26 23 22 21 22 21
46 45 49 54 59 66 62 66 65 64 79 79 75 58 46 37 28 25 24 26 26 24 24 27 34 39 39 34 37 37 35 37 38 36 33 31 31 30 30 31 32 32 33 34
40 42 42 49 55 60 54 68 75 58 53 55 56 57 58 50 38 29 22 22 22 26 24 24 25 29 28 34 41 46 35 38 38 34 31 32 34 34 32 32 33 34 34 33
44 42 40 47 53 58 63 72 83 85 65 63 57 62 56 57 54 40 25 18 17 17 19 25 27 27 27 31 32 37 38 37 41 40 43 48 46 42 36 33 34 34 35 38
60 53 50 48 57 56 59 80 92 95 79 80 71 79 53 42 40 40 32 24 16 13 13 13 17 24 25 25 27 33 43 45 46 52 49 44 44 46 56 66 66 64 62 63
68 69 71 52 53 54 62 72 88 98 93 92 89 78 72 51 35 34 28 21 18 15 12 12 12 13 19 25 23 26 33 44 53 63 62 57 56 52 49 54 59 58 56 61

GFSCGP_250_rhum_072.txt.gz
RH
2 2 2 3 3 3 4 4 5 5 7 8 10 8 27 33 38 100 100 100 100 100 100 100 100 100 100 100 100 100 100 100 100 100 100 96 100 100 100 100 100 84 95 100
2 2 2 3 3 4 4 4 4 5 5 7 8 10 30 58 72 100 100 100 100 100 100 100 100 100 100 100 100 100 100 100 100 100 100 100 100 99 100 100 100 94 100 98
2 2 2 3 4 4 4 5 5 7 5 8 8 12 39 77 76 100 100 100 100 100 100 100 100 100 100 100 100 100 100 100 100 100 100 100 100 100 100 98 84 95 100 92
2 2 2 4 5 5 5 5 5 7 8 10 14 38 27 64 100 100 100 100 100 100 100 100 100 100 100 100 100 100 100 100 100 100 100 100 100 100 100 100 100 100 100 100
2 2 3 4 5 5 6 6 8 11 11 17 34 37 34 73 100 100 100 100 100 100 100 100 100 100 100 98 100 88 100 100 100 100 100 100 99 99 100 100 100 100 100 100
2 3 4 5 7 9 10 10 13 12 12 22 20 32 34 29 86 100 100 100 100 100 100 100 100 100 100 100 100 100 100 100 100 100 96 100 100 100 100 100 100 100 100 100
2 3 4 5 6 9 16 15 17 15 22 27 31 38 33 25 44 100 100 100 100 100 100 100 100 100 100 100 100 100 100 100 100 100 100 100 100 100 100 100 100 98 100 100
3 3 3 5 8 9 14 29 23 27 25 28 36 54 29 25 22 55 100 100 100 100 100 100 100 100 100 100 100 100 99 97 86 100 100 100 100 100 100 100 100 98 100 100
4 6 6 6 7 11 13 17 28 40 40 48 40 29 32 19 19 31 73 100 100 100 100 100 100 100 100 100 100 100 100 100 100 100 100 100 100 100 100 100 100 100 100 100
3 5 8 13 14 15 14 15 16 17 25 43 46 30 19 25 22 21 38 62 100 100 100 100 100 100 100 100 100 100 100 100 100 100 100 100 96 100 100 100 100 100 100 100
6 6 5 9 12 16 15 16 20 18 24 22 35 35 29 19 42 32 24 26 50 100 100 100 100 100 100 100 100 100 100 100 100 100 100 100 100 100 100 100 100 100 100 100
6 7 8 9 10 13 18 20 19 19 18 18 17 19 20 16 12 26 22 16 16 25 56 100 100 100 100 100 100 100 100 100 100 100 100 100 100 100 100 100 100 100 100 100
10 11 12 10 16 19 22 27 24 26 27 25 22 20 20 19 18 19 19 25 26 21 17 21 41 57 93 100 100 100 100 100 100 100 100 100 100 100 100 100 100 98 100 100
12 13 15 22 22 23 22 25 30 30 32 32 29 25 24 24 24 23 25 26 25 23 21 21 25 30 37 44 72 94 100 100 96 95 93 88 86 99 100 100 100 100 100 100
20 16 16 18 18 21 30 38 38 35 37 41 40 39 34 32 33 36 32 30 33 32 29 25 26 26 24 22 24 29 37 47 54 60 66 72 81 78 74 73 75 78 98 100
28 25 23 25 24 22 24 24 23 26 34 46 49 46 41 39 34 32 29 27 26 26 28 28 26 24 23 22 21 20 20 20 21 24 32 39 43 52 64 65 63 59 59 60
43 43 38 38 35 32 27 28 28 28 28 28 27 27 33 40 44 43 38 34 30 26 25 25 26 26 28 27 27 25 22 20 19 19 21 23 25 27 30 33 36 41 46 49
41 45 53 64 64 71 67 60 53 46 40 35 35 35 31 29 29 27 27 31 35 35 32 29 26 23 23 23 24 25 24 22 22 21 22 23 23 24 23 24 25 26 27 28
50 45 44 45 52 60 73 67 68 64 69 68 65 52 45 40 36 35 30 25 27 31 32 32 32 30 27 24 22 21 22 22 22 22 20 19 20 22 22 23 24 25 26 26
48 54 56 55 56 60 48 51 52 68 73 74 73 66 75 64 51 40 35 35 39 29 26 29 32 32 32 29 28 28 28 26 24 22 22 20 20 22 25 25 23 24 25 24
51 49 51 56 59 69 63 64 68 59 60 58 61 63 65 64 82 66 57 41 34 29 33 36 28 27 30 37 39 41 40 38 36 32 32 31 28 24 26 30 26 23 23 22
56 54 54 56 61 64 63 69 74 71 68 58 57 54 64 66 60 61 58 48 47 40 33 25 25 29 28 27 26 30 32 36 39 40 41 43 41 35 30 29 26 25 23 22
54 52 56 70 62 72 68 72 70 70 77 92 62 87 75 74 60 56 47 46 46 36 30 34 29 22 20 22 26 28 26 26 28 30 34 36 36 36 39 41 39 37 38 39
59 60 64 76 76 77 68 81 88 77 86 88 100 92 88 90 76 71 54 43 35 34 25 25 21 19 17 15 16 18 23 26 25 24 29 33 36 37 40 42 45 44 40 37
65 69 64 66 74 74 70 92 100 99 81 90 98 94 87 96 92 87 71 56 45 37 26 16 16 17 12 11 11 11 13 18 24 27 25 27 33 37 38 43 49 52 58 58
66 66 81 78 81 87 77 92 100 92 82 88 100 96 100 98 90 80 64 55 45 34 22 16 12 11 11 11 8 7 8 10 12 15 21 27 27 29 32 36 44 53 56 61

GFSCGP_250_rhum_075.txt.gz
RH
3 2 2 2 2 2 2 2 3 3 4 4 4 4 5 6 12 31 86 100 100 100 98 100 100 100 100 100 100 100 100 100 100 97 100 100 100 100 99 100 90 75 58 58
2 2 2 2 2 2 3 3 3 3 4 6 6 6 7 10 24 46 100 100 100 100 100 100 100 100 100 100 100 100 100 100 100 100 100 100 100 100 100 100 100 100 97 100
2 2 2 2 2 3 4 4 4 4 6 6 8 11 13 23 28 87 77 100 100 100 100 100 100 100 100 100 100 100 100 100 100 100 100 100 100 100 100 100 100 100 100 100
2 2 2 2 2 4 4 5 5 4 5 6 7 10 9 27 32 100 100 100 100 100 99 100 100 100 100 100 100 100 100 100 100 100 100 100 100 100 100 100 100 100 100 100
2 2 2 2 3 4 5 6 6 5 6 8 13 26 12 34 43 96 100 100 100 100 100 100 100 100 100 100 88 100 99 100 100 100 100 100 100 100 100 100 100 100 100 100
2 2 2 3 4 5 6 6 5 6 8 9 18 17 14 38 64 49 100 100 100 100 100 100 100 100 100 100 100 100 100 100 100 100 100 100 100 100 100 100 100 83 98 100
2 2 3 3 5 6 8 8 8 9 9 12 9 14 25 44 65 68 100 100 100 100 100 100 100 100 100 100 100 100 100 100 100 100 100 100 100 94 98 100 100 100 100 100
2 2 3 4 6 8 10 11 11 14 15 14 14 20 23 36 71 63 100 100 100 100 100 100 99 100 100 100 100 100 60 100 100 100 100 100 100 100 99 93 100 100 100 100
2 4 4 5 7 10 12 13 15 18 19 16 33 34 26 30 69 79 89 100 100 100 100 100 100 100 99 100 100 100 100 98 98 78 100 100 100 100 100 100 100 100 100 100
3 4 5 6 8 11 12 12 20 21 22 22 28 27 29 20 69 87 88 100 100 100 100 100 100 100 100 100 100 100 100 100 100 100 100 100 100 100 100 100 100 100 100 100
4 5 5 10 10 13 12 14 14 17 19 17 22 24 29 20 22 72 100 99 100 100 100 100 100 100 100 100 100 100 100 100 100 100 100 81 100 100 95 92 100 100 100 100
4 5 7 8 10 13 18 22 19 18 18 17 20 26 28 36 30 30 69 90 100 100 100 100 100 100 100 100 100 100 100 100 100 100 96 100 100 97 100 100 100 100 100 100
6 6 7 9 12 17 17 30 32 31 29 25 21 24 25 33 34 30 37 56 100 100 100 100 100 100 100 100 100 100 100 100 100 100 100 100 100 100 100 100 96 92 96 73
11 12 12 12 12 12 15 23 32 38 42 41 35 36 36 30 28 32 31 29 26 84 99 86 100 100 100 100 100 99 100 100 100 100 100 100 100 100 100 100 100 100 100 100
21 22 19 18 19 21 19 16 16 22 29 29 32 33 31 33 36 34 28 26 35 41 37 60 100 100 100 99 96 100 100 100 100 100 100 100 100 100 100 100 100 100 100 100
26 30 33 33 35 38 40 36 32 29 26 26 28 26 27 29 29 30 29 26 22 20 24 32 36 41 77 100 100 100 100 100 99 100 100 100 100 100 100 100 100 100 100 100
38 40 48 50 45 43 45 45 40 45 49 50 51 50 44 44 41 35 31 26 26 28 28 22 18 20 24 31 46 69 91 100 100 100 100 100 100 100 100 100 100 100 100 100
48 55 59 56 52 54 54 56 59 64 66 65 67 61 60 58 56 52 47 43 39 34 29 24 20 18 16 16 16 17 21 32 59 86 95 99 100 100 100 100 100 100 100 100
46 43 46 57 61 63 69 67 55 50 56 64 63 57 62 66 64 57 51 50 50 49 41 36 33 30 27 21 16 15 15 15 14 15 16 20 25 38 53 55 50 48 52 65
49 54 55 59 58 55 58 56 65 64 59 59 52 54 60 58 54 54 58 64 60 50 35 32 38 38 28 25 24 27 24 18 16 15 15 15 15 16 17 19 20 22 24 25
47 54 60 61 61 60 60 61 63 68 72 79 55 53 48 54 53 59 59 47 48 47 53 66 60 42 31 34 27 23 21 21 23 22 18 16 16 16 16 17 18 19 20 21
53 58 68 70 66 64 67 72 75 80 68 85 76 74 75 86 80 66 66 61 50 47 51 49 49 55 56 40 30 27 23 18 18 18 18 20 20 19 20 19 18 17 18 19
58 70 65 65 69 75 73 83 84 86 82 95 96 80 79 89 86 86 87 74 67 65 64 57 46 42 40 43 41 26 19 20 17 15 17 21 19 18 20 22 21 20 21 21
63 66 71 70 77 88 83 90 93 96 100 99 91 88 96 91 96 94 91 82 82 66 58 52 45 38 27 22 24 27 25 16 16 15 12 12 15 19 21 21 22 26 28 30
62 66 72 81 84 74 96 98 98 100 94 100 99 97 100 90 100 92 100 95 79 69 60 54 42 31 21 14 12 13 16 16 12 11 12 10 10 12 15 19 23 26 28 29
63 66 79 77 94 99 88 98 96 100 100 100 100 93 100 100 95 88 77 73 65 51 43 36 23 15 10 8 7 6 7 9 8 7 8 9 9 8 9 10 14 19 28 32

GFSCGP_250_rhum_078.txt.gz
RH
4 4 3 2 2 1 1 2 2 2 2 2 2 2 2 3 3 4 6 10 26 98 100 77 76 85 70 70 100 100 100 100 100 85 91 96 100 100 100 100 100 90 100 100
4 3 2 2 1 1 2 2 2 2 2 2 3 2 3 3 4 6 8 18 27 86 100 97 100 100 100 100 100 100 100 100 100 100 86 100 100 100 100 100 100 100 90 100
2 2 2 1 2 2 2 2 2 2 3 3 3 3 4 5 7 8 14 14 46 100 100 100 100 100 100 100 100 100 100 100 100 100 85 100 100 96 100 100 100 100 100 100
2 2 2 2 2 2 2 2 2 3 3 3 4 4 6 7 8 11 46 60 93 100 100 100 100 100 100 100 100 100 100 100 100 100 100 100 100 100 100 100 100 100 100 100
2 2 2 2 2 2 2 3 4 4 4 4 6 6 7 9 10 31 58 84 100 100 100 100 100 100 100 100 100 100 90 100 100 100 100 100 100 100 100 100 100 100 100 100
2 2 2 2 2 2 3 5 5 5 5 6 8 7 13 16 17 70 71 100 100 100 100 100 100 100 100 100 100 100 100 100 100 100 83 100 100 100 100 100 100 100 100 100
2 2 2 2 3 4 4 6 6 7 7 6 9 10 12 21 42 58 74 100 100 100 100 98 87 100 100 100 100 100 100 100 92 100 83 100 100 100 99 100 100 97 93 88
2 2 2 3 4 6 8 8 8 9 9 10 13 14 13 31 60 76 100 100 100 100 100 100 100 100 100 100 100 100 100 100 100 100 100 96 98 100 100 99 100 100 100 100
2 3 4 5 6 8 9 10 12 13 18 20 21 22 23 30 37 82 100 100 100 100 100 100 100 100 100 99 100 100 100 100 100 100 100 100 100 95 97 100 100 100 100 100
3 4 5 7 8 10 11 13 18 18 20 27 38 27 25 51 56 82 98 100 100 100 100 100 100 100 100 99 95 100 92 99 100 100 100 100 100 100 100 100 97 100 100 100
3 4 5 8 11 12 13 17 17 17 22 30 40 46 54 47 64 82 97 100 100 100 100 100 100 100 93 100 79 100 100 96 100 100 100 100 100 100 100 100 100 100 100 99
4 5 7 10 15 20 21 19 19 21 16 22 35 43 57 56 54 73 73 100 100 100 100 100 100 100 100 100 94 85 64 83 92 92 82 87 100 100 100 100 100 100 100 100
6 8 8 10 15 21 30 34 34 30 30 28 28 34 35 35 33 48 79 100 100 100 100 100 100 100 100 100 100 100 100 90 79 100 100 96 100 100 100 100 100 100 100 98
9 10 11 12 12 12 16 19 29 31 29 35 35 40 45 47 46 41 49 73 100 100 100 100 100 100 100 100 95 100 100 100 100 96 100 100 99 100 100 90 80 96 100 100
20 22 21 17 17 20 18 20 21 24 25 26 27 28 28 31 34 43 48 59 78 88 100 100 100 100 100 99 100 100 100 100 100 100 100 100 100 99 100 100 100 82 96 100
22 23 23 26 28 31 38 40 37 33 33 31 32 33 31 34 36 35 35 32 46 86 94 100 100 100 100 100 100 88 98 100 100 100 96 100 100 100 98 98 100 100 100 98
34 33 30 32 35 38 38 37 39 42 40 46 48 51 47 47 40 39 35 31 29 28 30 62 80 93 100 100 100 100 97 98 99 100 100 100 100 100 95 100 100 100 100 100
42 45 44 42 42 48 49 45 47 47 48 49 52 55 56 59 57 60 58 52 44 41 35 28 26 33 52 74 94 93 97 99 98 100 100 100 100 100 100 100 100 100 98 88
43 48 49 51 48 51 51 48 50 55 54 52 50 55 52 53 54 58 54 58 57 50 46 43 39 34 28 25 26 33 50 72 82 87 90 90 94 94 98 100 100 100 100 100
53 52 60 61 53 54 50 57 56 53 55 59 57 56 55 59 53 53 62 56 47 47 47 48 45 41 37 32 30 32 30 24 25 37 64 83 81 91 88 97 100 100 100 97
53 52 55 67 74 75 71 72 67 58 60 62 64 71 67 72 63 74 84 58 61 58 54 51 45 43 49 52 52 48 42 34 32 27 23 22 22 22 28 45 66 84 87 84
61 70 60 55 79 80 65 72 82 86 77 71 78 80 77 86 72 84 78 66 74 64 63 55 50 44 42 39 37 33 33 39 41 34 28 22 21 19 19 19 18 18 21 27
57 65 70 71 75 77 80 93 82 80 91 92 90 85 82 86 72 85 81 75 64 71 65 58 51 43 39 36 34 28 21 19 22 27 33 28 21 20 20 16 16 16 18 18
66 67 70 84 90 92 100 99 94 77 83 91 88 86 96 94 82 95 89 85 72 62 58 56 51 41 30 22 19 15 13 11 11 13 18 18 16 13 12 15 17 16 15 14
66 68 73 87 95 100 99 96 99 98 97 86 92 79 95 89 100 98 97 91 86 68 53 50 42 38 23 13 9 6 6 6 7 7 8 9 11 11 9 8 9 12 14 13
64 66 76 80 91 97 95 99 92 95 89 98 88 88 87 100 100 99 93 83 58 49 43 38 26 18 10 6 6 4 4 4 4 4 4 5 5 6 7 6 5 6 9 11

GFSCGP_250_rhum_084.txt.gz
RH
3 3 3 3 2 2 2 3 3 2 2 3 3 4 3 3 4 4 4 5 6 6 8 7 8 10 13 17 21 34 100 100 100 100 100 100 100 100 100 100 100 100 100 100
4 3 2 2 2 2 2 2 2 2 2 3 4 3 4 4 3 3 3 4 4 6 6 7 8 9 13 17 27 100 100 100 100 100 100 100 100 100 100 100 100 100 100 100
3 2 2 2 2 2 2 2 2 2 3 3 3 3 3 3 3 3 3 3 4 4 5 6 8 10 15 48 75 100 100 100 100 100 100 100 100 100 100 100 100 100 100 100
2 2 2 2 2 2 3 3 3 3 3 3 3 2 2 2 2 2 2 2 4 4 5 7 10 12 15 26 73 100 100 100 100 100 100 100 100 100 100 100 100 100 100 100
3 2 3 3 4 4 4 3 3 3 2 2 2 2 2 2 2 2 2 3 4 5 6 8 14 20 22 29 54 100 100 100 100 100 100 100 100 100 100 100 100 100 100 100
5 5 5 5 4 3 3 2 2 2 2 2 2 2 2 2 2 2 3 4 6 8 10 17 60 87 66 100 85 71 88 84 90 100 100 100 100 100 100 100 100 100 100 99
5 4 3 2 2 2 2 2 2 2 2 2 3 4 4 4 4 4 4 6 10 31 48 84 100 100 100 100 51 49 73 100 100 100 100 100 100 100 100 100 100 100 100 80
3 2 2 2 2 2 2 3 3 4 4 4 4 4 5 6 6 6 7 10 73 100 100 100 100 100 94 100 83 100 100 100 100 100 100 100 100 100 100 100 100 100 100 100
2 2 2 2 3 3 4 5 5 6 6 6 6 7 8 9 9 9 14 91 57 100 100 100 100 100 100 100 100 100 100 100 100 100 100 100 100 100 100 100 100 100 100 100
2 2 3 4 4 5 7 7 8 7 7 8 9 12 15 12 15 43 71 100 100 100 100 100 100 100 100 100 100 100 100 100 100 100 100 100 100 99 100 100 100 100 100 99
3 4 4 5 7 8 10 8 10 13 11 16 17 21 18 35 71 71 68 100 100 100 100 100 100 100 100 100 100 100 100 100 100 100 100 100 100 100 100 100 100 100 100 100
4 4 6 7 9 10 11 13 20 17 21 26 26 32 48 62 84 72 66 87 100 100 100 100 100 100 100 100 100 100 100 100 100 100 100 100 100 100 100 100 100 100 100 100
6 6 9 9 8 11 12 16 21 25 33 44 51 43 42 44 41 47 53 77 100 100 100 100 100 100 100 100 100 100 100 100 100 100 100 100 100 100 100 100 100 100 100 100
7 7 8 10 10 12 11 11 11 16 27 32 53 78 78 66 64 54 48 73 100 100 100 100 100 100 100 100 100 100 100 100 100 100 100 100 100 100 100 100 100 100 100 100
8 9 9 10 13 14 18 17 16 16 17 22 25 39 53 82 100 100 93 72 100 100 100 100 100 100 100 100 100 100 100 100 100 100 100 100 100 100 100 100 100 100 100 100
22 24 24 24 25 25 24 21 19 21 28 31 34 28 31 41 50 51 65 64 87 96 100 100 100 100 100 100 100 100 100 100 100 100 100 100 100 100 100 100 100 100 100 100
27 27 27 28 29 32 35 38 41 42 43 43 42 46 50 52 45 42 39 45 57 74 96 100 100 99 100 100 100 100 100 100 100 100 100 100 100 100 100 100 94 90 100 100
27 28 29 30 33 34 38 39 37 38 39 38 44 45 47 48 48 50 49 48 53 55 76 100 100 100 100 100 100 100 100 100 100 100 100 100 100 100 96 96 97 96 99 84
36 38 38 38 40 41 42 43 46 48 46 43 40 42 39 39 37 47 39 37 42 44 55 57 78 100 100 100 100 100 100 100 100 100 100 100 100 100 100 100 100 100 99 100
43 43 45 45 44 43 44 45 47 48 51 52 48 44 44 43 42 43 38 41 39 30 29 42 40 40 43 51 72 91 90 92 93 95 97 99 99 97 98 94 90 93 88 86
53 55 55 57 57 59 55 58 57 50 48 48 49 50 47 47 48 45 47 46 48 41 41 35 36 37 34 35 37 36 37 41 38 45 56 76 84 86 80 81 75 68 71 69
66 65 66 64 62 60 60 67 70 63 64 63 59 57 59 60 55 52 55 47 45 46 43 45 45 41 39 34 31 32 24 22 24 25 29 35 38 44 51 58 58 37 31 35
68 70 69 65 64 62 65 67 73 85 86 82 78 69 64 59 58 56 57 61 56 55 51 52 46 49 37 36 30 27 21 15 12 13 12 12 14 20 25 26 26 25 24 22
76 74 71 71 70 71 69 68 82 99 91 93 92 87 77 71 69 65 56 54 54 53 50 56 51 40 37 33 29 21 14 10 8 7 7 7 6 7 8 7 11 13 14 17
87 86 85 84 86 84 82 80 73 68 76 80 84 79 79 74 74 67 60 58 52 49 47 52 48 38 37 32 19 12 6 4 4 4 4 4 3 3 3 3 3 4 4 5
92 93 90 89 90 90 89 83 77 72 72 80 84 80 83 76 76 70 63 53 53 51 45 42 38 32 28 16 10 5 3 3 3 3 3 3 3 3 3 2 3 2 2 3

GFSCGP_250_rhum_087.txt.gz
RH
6 4 3 4 3 3 3 3 3 2 2 2 2 3 3 4 4 5 5 5 5 6 8 9 12 9 11 8 9 15 20 22 77 100 100 100 100 100 100 100 99 100 100 100
5 5 4 3 3 3 2 2 2 2 2 2 2 2 3 3 4 4 4 5 5 7 8 8 9 10 11 11 12 15 19 22 25 53 96 100 100 100 100 100 100 100 84 100
5 4 4 3 2 2 2 2 2 2 2 2 2 2 3 3 3 3 4 4 5 5 6 8 10 12 12 15 13 15 20 22 41 95 73 98 100 100 100 100 100 100 93 99
6 4 3 3 3 2 2 2 2 2 2 2 2 2 3 3 3 4 4 4 5 6 6 6 9 11 14 15 12 15 19 21 27 100 100 100 100 100 100 100 100 100 100 100
4 3 3 3 2 2 2 2 2 2 2 3 3 3 3 4 4 4 4 5 5 5 5 6 8 9 10 11 12 14 16 19 39 90 99 100 100 100 100 100 100 100 100 100
4 5 5 4 4 4 3 3 3 3 4 4 3 3 3 3 2 3 3 3 4 4 5 6 8 8 9 10 11 14 16 35 72 45 70 96 87 100 100 100 100 100 100 100
7 8 7 6 5 5 4 4 3 3 2 2 2 2 2 2 2 2 3 3 4 4 5 7 8 10 10 11 12 16 44 40 61 84 100 100 100 100 100 100 100 100 100 100
8 6 5 4 4 3 2 2 2 2 2 2 2 2 3 3 3 4 4 4 6 7 10 13 16 17 26 36 40 50 99 100 100 100 100 100 100 100 100 100 100 100 100 100
4 3 3 3 3 2 2 2 3 3 3 4 4 4 4 5 6 6 5 6 8 13 44 54 100 94 88 98 92 100 100 100 100 100 100 100 100 100 100 100 100 100 100 100
3 3 3 3 3 3 4 4 4 5 5 5 5 6 6 7 9 20 35 35 56 99 100 100 100 100 100 100 100 100 100 100 100 100 100 100 100 100 100 100 100 100 98 100
4 4 4 5 5 6 6 7 7 8 8 6 7 8 7 9 18 60 81 98 87 100 100 100 100 100 100 100 100 100 100 100 100 100 100 100 100 100 100 100 100 100 100 100
5 6 7 6 7 8 8 8 10 12 14 13 11 9 10 12 23 61 78 88 100 100 100 100 100 100 100 100 100 100 100 100 100 100 100 100 100 100 100 100 100 100 100 100
8 8 8 8 8 8 7 9 18 18 22 23 24 24 26 19 28 38 51 87 100 100 100 100 100 100 100 100 100 100 100 100 100 100 100 100 100 100 100 100 100 88 94 98
8 8 9 10 10 10 10 10 17 16 20 32 42 48 46 46 43 50 49 76 100 100 100 100 100 100 100 100 100 100 100 100 100 100 100 100 100 100 100 100 100 94 93 91
8 8 9 11 12 14 16 17 20 21 23 24 26 31 54 55 67 77 61 49 75 100 100 100 98 100 100 100 100 100 100 100 100 100 100 100 100 100 100 100 100 100 100 100
19 22 21 22 24 24 24 24 26 24 23 21 26 33 43 46 61 60 77 79 81 70 69 96 96 98 99 93 100 100 100 100 100 100 100 100 100 100 100 100 100 100 100 100
28 30 30 33 35 31 35 36 35 35 39 39 40 37 35 39 41 42 42 39 66 88 90 84 83 88 97 97 99 100 100 100 100 99 94 99 100 100 100 100 100 100 100 100
32 33 34 35 40 40 39 41 42 43 42 45 46 44 45 44 42 40 42 44 47 43 41 46 47 63 100 100 92 83 80 76 81 93 99 100 95 92 100 100 100 100 100 100
38 39 40 40 42 43 42 42 42 38 40 40 42 43 42 46 44 38 37 42 39 36 39 39 45 50 70 100 100 100 100 100 100 92 76 74 84 100 95 96 100 100 100 100
43 43 42 42 43 42 42 45 45 45 46 46 45 48 48 42 48 40 48 43 41 43 41 45 44 48 50 56 48 50 52 57 62 73 86 99 85 72 63 72 77 76 87 88
53 52 52 49 50 51 53 53 53 50 50 51 54 60 60 55 51 50 55 54 52 51 45 50 48 46 42 38 37 36 33 35 36 36 40 49 50 57 60 48 45 55 59 57
69 67 65 64 62 64 67 68 67 64 61 63 65 65 63 59 68 73 65 57 56 58 60 57 55 50 48 47 42 42 40 35 32 31 29 23 26 32 38 41 51 36 29 26
74 74 77 78 76 71 69 70 69 68 68 66 70 73 74 72 70 66 64 67 61 52 54 54 53 55 51 43 42 37 34 28 24 19 15 10 10 11 12 20 23 22 31 28
82 80 82 82 82 77 79 78 75 73 73 75 77 72 69 68 72 72 71 64 62 52 54 51 54 52 52 44 40 32 24 18 12 8 6 4 4 4 4 4 5 6 7 11
84 78 73 73 75 73 74 75 73 70 71 74 69 65 66 66 68 72 69 65 60 54 52 50 51 56 50 47 38 33 25 11 6 3 3 3 3 3 3 3 3 3 3 3
89 96 97 88 79 76 86 85 71 74 73 69 70 66 61 58 55 59 62 63 57 53 54 54 55 57 51 44 37 32 18 6 4 3 3 3 4 4 4 4 4 3 3 3

GFSCGP_250_rhum_090.txt.gz
RH
10 10 8 5 6 5 5 4 3 3 2 2 2 2 2 2 2 3 4 5 6 7 8 9 10 11 13 16 17 18 20 14 16 24 17 16 91 100 100 100 100 100 100 100
12 9 7 9 6 5 4 3 2 2 2 2 2 2 2 2 2 2 3 4 5 6 6 8 9 9 11 14 14 17 16 18 20 22 16 17 58 100 100 99 100 100 100 94
8 10 8 5 3 2 2 2 2 2 2 2 2 2 2 2 2 2 2 3 4 5 6 8 9 9 10 12 11 12 14 18 17 18 14 20 33 100 100 100 100 100 100 100
10 6 5 4 3 3 3 3 2 2 2 2 2 2 2 2 2 2 2 2 3 4 5 6 7 8 8 8 10 14 14 13 15 15 19 27 29 42 100 100 100 100 100 100
8 7 6 4 4 4 3 3 3 2 2 2 2 2 2 2 2 2 2 2 3 3 4 4 5 6 6 9 12 13 14 13 18 16 20 31 32 37 45 100 100 100 100 100
9 7 6 5 5 4 4 3 3 2 2 2 2 2 2 3 3 3 3 3 3 4 4 4 5 6 9 13 15 16 15 17 23 24 24 26 40 79 100 100 100 100 100 100
8 8 10 8 9 7 6 5 5 4 4 3 3 3 3 3 3 4 4 5 5 5 6 8 9 10 12 17 21 20 22 21 28 28 23 24 94 100 100 100 100 100 100 100
13 11 10 7 6 6 5 4 3 3 2 2 2 2 2 2 2 2 2 3 4 5 6 6 8 10 13 16 19 22 21 20 21 21 20 47 46 100 100 100 100 100 100 100
10 7 5 4 4 4 3 3 3 2 2 2 2 2 2 2 2 3 3 4 4 4 5 6 7 9 10 15 18 16 16 16 17 20 32 60 100 100 100 100 100 100 100 100
4 4 4 5 5 4 4 4 4 4 4 4 4 4 5 5 5 5 5 6 8 11 15 14 17 27 53 64 50 51 59 70 60 37 86 100 100 100 100 100 100 100 100 100
7 7 6 5 6 6 5 5 6 5 6 6 7 7 8 7 7 7 8 10 25 32 49 67 79 57 71 97 100 88 100 100 100 94 100 100 100 100 100 100 100 100 100 100
7 7 9 7 9 9 7 7 8 10 8 12 11 12 13 18 17 18 15 25 41 43 90 100 100 100 93 92 100 100 100 100 100 100 100 100 100 100 100 100 100 100 100 100
11 10 9 10 11 14 8 11 13 15 19 22 17 20 24 29 25 23 28 44 37 36 59 83 99 100 93 89 100 100 100 100 100 100 100 100 100 100 100 100 100 100 100 100
13 12 11 11 13 15 13 14 18 22 25 25 32 43 28 44 45 50 65 46 58 50 53 58 67 83 83 80 95 100 100 100 100 100 100 100 100 100 100 100 100 100 100 100
13 13 14 14 14 14 14 14 16 19 20 21 27 39 61 46 44 53 73 61 56 54 59 54 57 56 62 73 74 76 85 99 100 100 100 100 100 100 100 100 100 100 100 100
22 22 23 22 23 22 24 22 22 22 23 23 22 25 36 57 66 65 71 83 84 60 57 55 58 66 74 60 65 63 74 75 79 81 100 100 100 100 100 100 100 100 100 100
28 29 30 31 32 31 31 31 32 31 30 34 36 40 41 39 47 58 54 72 90 96 81 77 78 90 85 90 91 78 75 78 82 87 78 82 89 100 100 100 100 100 100 100
34 34 35 37 40 41 40 40 39 38 37 37 37 37 41 45 46 46 44 41 42 49 64 56 55 54 55 47 46 52 77 82 87 94 94 94 82 73 72 80 86 100 100 100
44 46 49 52 55 57 54 54 54 51 53 51 54 53 52 50 48 47 49 54 48 49 54 56 52 53 52 52 51 50 51 52 60 70 56 63 97 100 98 93 88 68 62 73
50 51 52 53 56 60 60 60 60 56 49 47 52 54 56 53 51 47 50 52 48 40 39 41 46 47 49 51 53 52 53 53 56 53 42 37 36 46 48 54 63 55 68 74
58 58 57 58 58 59 58 58 55 53 53 51 52 55 52 52 49 52 48 49 46 46 50 49 50 49 51 54 58 57 59 62 62 59 50 43 37 32 27 25 26 34 34 33
66 68 69 70 71 72 72 70 69 69 69 68 67 63 58 54 52 52 49 46 48 49 46 46 46 52 53 54 57 63 64 66 67 62 53 46 38 26 16 13 12 13 18 18
65 65 65 64 66 68 72 70 70 68 64 62 61 57 54 50 46 46 46 50 53 51 52 54 58 63 66 65 68 70 75 74 73 63 57 39 22 9 5 4 3 4 4 5
66 65 64 64 62 61 64 64 60 59 57 55 54 57 58 58 62 60 59 61 60 61 71 66 72 72 72 69 73 71 76 72 68 62 50 27 9 4 4 4 3 3 3 3
79 85 88 83 74 72 77 72 71 67 66 65 70 72 70 72 61 57 60 63 67 67 69 70 75 79 75 72 71 73 69 65 65 59 40 14 5 4 4 4 4 4 4 4
76 83 80 76 76 74 78 76 77 75 76 84 85 81 71 66 67 71 80 79 76 82 79 78 80 74 75 71 67 73 66 63 63 50 28 8 5 5 4 4 3 3 3 3

GFSCGP_250_rhum_093.txt.gz
RH
32 25 19 12 8 7 6 7 7 5 5 4 3 3 2 2 2 2 3 3 4 6 5 5 6 6 10 12 14 10 10 16 20 19 23 28 29 28 29 26 26 35 33 30
28 21 15 11 9 7 7 7 5 4 4 4 2 2 2 2 2 2 2 2 2 3 3 4 4 6 9 9 10 9 11 14 16 19 23 23 24 25 26 27 30 33 30 52
22 15 11 8 7 7 5 4 4 4 3 3 2 2 2 2 2 2 2 2 2 3 3 3 4 5 6 7 8 10 13 14 17 19 19 21 20 22 24 24 32 41 35 48
12 9 9 9 6 5 5 4 4 4 3 3 2 2 2 2 2 2 2 2 2 2 2 3 3 4 4 6 8 10 12 14 17 17 18 18 20 20 23 20 42 42 83 99
8 10 8 6 6 6 4 4 3 3 2 2 2 2 2 2 2 2 2 2 2 3 3 4 4 4 4 6 9 11 13 14 15 20 25 23 19 19 14 24 38 76 100 100
9 8 7 7 8 6 5 4 4 3 3 3 2 2 2 2 2 2 2 2 2 3 3 3 3 3 4 5 6 8 13 17 18 18 18 15 12 20 23 25 36 94 100 100
8 8 9 10 8 8 8 6 6 5 4 3 3 3 3 2 2 2 2 2 3 3 3 3 4 4 5 6 6 7 8 9 9 10 11 13 19 22 22 32 46 65 100 100
12 11 15 12 12 11 10 7 5 4 4 4 3 3 3 3 3 4 3 3 4 4 4 4 4 5 6 7 8 9 9 10 11 12 14 18 20 24 35 40 64 76 100 100
20 18 14 11 7 5 4 3 3 3 2 2 2 2 2 2 2 2 2 3 4 5 7 8 8 8 9 10 13 13 12 14 16 17 20 25 26 28 32 48 62 100 100 100
11 9 7 6 7 6 6 5 5 4 4 4 4 3 3 2 2 3 3 3 3 3 4 6 8 10 12 14 18 20 24 22 26 29 32 36 38 39 44 42 57 100 100 100
10 9 10 12 10 11 10 8 10 9 7 6 6 6 5 6 6 4 4 4 4 4 4 4 5 7 10 14 19 27 39 44 41 31 41 45 41 34 61 90 100 100 100 100
14 14 18 16 17 16 15 15 15 18 11 12 10 10 14 12 10 11 8 7 6 6 5 5 6 8 13 37 43 58 64 79 83 78 61 72 71 64 100 100 100 100 100 100
19 16 14 15 15 19 14 19 21 20 16 17 14 17 19 23 30 31 20 14 16 20 15 13 23 19 23 36 41 51 67 74 91 100 100 100 100 100 100 100 100 100 100 100
15 14 16 15 16 19 20 23 20 23 22 27 31 25 35 34 37 49 41 28 32 37 33 31 34 35 49 51 65 69 56 71 75 94 98 100 100 100 100 100 100 100 100 100
16 17 17 16 17 17 18 22 22 25 26 31 36 37 45 47 55 65 64 74 73 68 51 50 47 49 66 66 72 65 63 70 67 64 69 91 89 88 95 100 100 100 100 100
28 30 28 28 28 28 26 22 22 27 32 35 30 27 43 60 60 71 84 82 85 84 82 68 60 72 75 86 85 88 90 89 100 100 94 100 100 96 92 82 90 100 100 100
34 34 33 33 35 35 36 36 39 38 38 38 42 41 38 39 48 72 89 99 94 78 84 93 100 87 79 95 100 90 83 60 55 62 75 81 99 100 100 100 100 89 96 100
44 45 48 46 45 41 40 44 44 48 50 51 52 50 50 53 55 54 53 54 53 48 55 65 64 76 82 62 54 52 52 52 53 54 55 56 56 55 57 66 68 89 78 97
49 50 50 49 50 55 54 50 50 47 45 45 47 52 59 66 62 60 61 62 69 69 72 68 65 60 57 54 53 53 54 57 60 66 69 69 74 74 72 65 64 66 66 66
53 53 53 52 52 53 53 53 55 54 53 56 56 55 52 48 47 48 45 50 47 49 46 49 47 47 49 50 52 51 55 60 63 63 63 65 65 59 63 69 67 57 50 47
54 56 58 58 59 60 60 61 63 61 64 62 60 56 52 51 52 49 45 43 42 39 37 39 41 46 53 59 59 59 61 62 60 60 68 66 62 65 65 65 56 56 42 34
56 57 57 59 62 64 64 64 65 64 63 62 60 58 55 51 50 48 45 48 50 50 49 51 56 60 64 66 64 62 60 61 61 69 67 66 67 70 68 66 58 40 25 14
52 52 51 48 47 48 48 50 52 52 51 47 46 45 45 47 46 45 47 50 49 47 52 55 54 51 51 52 56 67 70 64 64 67 67 68 69 70 67 61 42 19 8 4
54 54 52 56 55 55 56 59 55 51 51 53 54 55 54 53 52 51 54 54 60 63 64 63 66 68 64 65 57 54 64 70 72 77 71 66 70 69 62 46 20 7 4 4
75 76 78 74 71 65 62 71 66 70 75 76 80 80 82 82 84 79 77 77 80 76 74 80 82 77 73 75 69 71 76 74 70 72 70 64 65 62 54 27 9 5 4 3
85 80 80 87 90 90 77 74 84 94 96 92 94 98 97 94 96 97 94 95 99 98 99 98 96 92 86 80 74 77 75 71 66 68 63 61 65 60 35 11 6 4 3 3

GFSCGP_250_rhum_096.txt.gz
RH
65 62 62 54 41 29 22 16 12 10 7 6 6 5 5 4 3 3 2 2 2 2 3 3 4 4 5 8 10 12 16 18 17 10 13 18 26 24 25 27 22 20 17 22
67 63 55 48 39 31 23 19 11 7 6 5 5 4 4 3 3 2 2 2 2 2 2 2 2 3 4 5 7 10 12 14 11 10 12 14 20 25 25 28 24 24 24 24
78 71 60 44 35 23 16 12 8 8 6 5 4 4 3 3 3 2 2 2 2 2 2 2 2 2 3 4 5 7 9 11 11 12 14 13 19 26 27 32 32 30 27 24
57 53 44 37 27 18 12 11 8 6 5 4 4 3 3 3 3 2 2 2 2 2 2 2 2 2 2 3 4 4 6 7 9 12 14 16 21 26 28 27 26 23 26 32
36 33 29 21 17 13 12 8 6 5 4 4 3 3 3 3 3 2 2 2 2 2 2 2 2 2 2 3 3 3 4 5 5 7 12 17 22 26 24 23 22 22 24 29
34 29 22 18 12 8 8 7 6 4 4 4 3 3 2 2 2 2 2 2 2 2 2 2 2 2 3 3 3 4 4 6 6 7 9 13 18 22 23 26 22 19 24 34
12 11 9 9 10 9 8 6 6 6 5 4 4 4 3 3 2 2 2 2 2 2 2 2 3 3 3 3 4 4 5 5 5 6 6 12 19 23 21 19 23 29 31 29
8 10 12 14 11 12 10 11 10 8 7 6 5 5 5 4 4 3 3 2 2 3 3 2 3 3 3 4 4 5 5 6 6 7 9 11 14 19 20 23 21 18 16 17
16 22 19 17 17 14 10 7 6 5 5 3 3 3 3 3 3 4 4 4 5 4 4 3 4 4 4 5 5 5 5 6 7 7 9 10 10 10 10 12 14 21 29 32
23 19 16 13 11 16 11 13 8 6 5 4 4 4 4 3 3 3 3 3 4 6 8 9 9 8 8 8 8 8 9 9 9 10 11 11 12 13 16 17 24 56 79 85
15 14 22 22 24 22 18 15 12 10 10 8 7 8 6 6 5 5 5 5 4 4 4 5 6 9 11 13 15 15 16 17 19 22 25 25 26 24 33 37 41 68 94 98
26 26 38 30 31 20 19 14 13 15 15 15 16 15 14 12 13 13 12 17 13 10 9 21 25 16 8 14 22 30 38 28 35 29 33 45 61 64 55 58 61 62 83 100
25 27 30 27 27 27 22 19 22 26 27 27 20 23 30 26 27 27 23 28 33 25 19 22 39 41 48 41 41 47 60 61 45 51 54 52 73 82 83 85 83 79 75 84
30 30 33 33 32 32 25 27 25 34 42 46 39 37 40 43 44 50 43 46 47 52 53 48 54 60 64 64 70 63 63 64 67 75 83 92 80 81 80 85 85 88 100 100
22 24 25 27 30 33 34 36 36 38 47 44 48 58 72 78 81 83 85 84 86 92 95 92 79 71 75 67 72 83 92 94 97 94 96 90 89 99 100 100 95 96 94 100
34 33 32 35 39 40 39 43 37 36 36 32 44 48 45 58 78 82 89 83 86 75 65 78 80 85 87 96 86 92 97 97 97 90 100 100 100 100 100 99 100 100 96 97
41 44 43 43 44 42 44 44 42 40 36 34 32 34 35 35 37 42 44 46 51 55 58 54 63 58 66 75 75 78 68 49 49 52 54 55 53 55 59 62 70 77 90 99
41 39 38 39 39 40 41 43 43 43 44 44 44 48 53 53 53 50 50 51 49 49 51 49 49 48 51 56 52 50 55 56 54 52 52 54 58 63 66 70 70 70 68 66
56 54 53 54 55 56 51 52 53 57 59 61 63 63 63 64 62 64 61 57 57 55 57 56 58 61 61 60 59 58 57 57 60 60 61 64 66 66 70 70 69 69 66 66
59 61 62 62 62 63 62 61 63 64 62 64 64 61 60 58 56 54 54 52 51 51 53 52 54 56 56 57 65 66 62 60 62 61 60 57 56 52 53 52 53 54 56 55
57 55 55 54 56 58 62 62 61 60 60 58 56 59 58 56 55 54 52 50 49 52 57 55 55 51 53 54 52 48 48 47 47 43 45 55 58 55 52 53 57 58 57 58
55 57 58 58 55 54 54 57 56 56 54 55 56 56 57 57 56 60 62 62 59 58 56 56 59 57 58 55 51 50 48 52 53 54 57 56 50 48 50 49 62 62 52 51
67 65 67 73 69 64 60 57 58 57 61 63 66 66 65 64 66 65 63 60 60 58 57 62 59 58 60 67 62 58 54 57 55 51 49 57 52 48 50 50 51 54 47 47
87 75 78 75 81 84 84 80 79 67 68 70 62 61 66 74 78 79 79 80 81 80 75 73 68 68 70 67 67 69 77 80 70 73 74 65 58 52 53 55 52 50 51 50
80 94 93 91 97 89 87 91 82 76 77 78 92 96 97 92 89 84 84 89 81 84 86 82 74 73 73 74 82 81 80 79 76 76 74 64 52 52 55 54 52 49 49 46
70 67 86 82 82 84 80 76 72 74 80 83 86 86 85 78 75 77 82 81 78 78 80 77 71 73 75 78 83 85 88 88 83 88 76 67 57 56 48 52 53 50 44 31

GFSCGP_250_rhum_099.txt.gz
RH
90 96 100 94 74 77 75 79 54 30 22 16 11 9 7 7 6 5 5 5 4 3 3 2 2 2 2 2 3 5 7 8 10 12 14 18 16 14 13 26 35 31 29 32
95 87 92 95 81 66 67 70 54 33 19 11 8 7 7 6 5 4 3 3 3 2 2 2 2 2 2 2 2 3 5 7 10 11 11 12 12 11 14 21 25 25 31 29
76 92 91 85 87 70 54 49 35 22 16 12 10 8 6 6 4 3 2 3 3 3 2 2 2 2 2 2 2 2 3 5 6 7 8 9 10 11 13 17 21 25 28 26
86 79 75 73 78 68 49 44 31 24 17 13 10 6 6 4 3 3 2 2 2 3 3 2 2 2 2 2 2 2 2 3 3 4 6 8 10 12 12 14 18 24 29 23
85 94 67 45 50 45 38 33 26 18 12 10 6 4 4 3 3 3 3 3 3 3 3 2 2 2 2 2 2 2 2 2 3 3 4 6 8 11 15 15 20 26 31 27
50 48 38 35 35 36 31 27 20 12 9 6 5 5 4 4 3 3 3 3 3 3 3 3 3 3 2 2 3 2 2 2 3 3 4 5 6 9 13 14 15 19 28 25
30 29 29 31 27 27 21 12 8 8 9 9 7 6 5 4 3 3 3 3 3 2 2 2 2 2 2 2 2 3 3 3 3 4 4 5 5 6 6 6 7 8 10 14
18 17 19 14 12 10 10 12 19 15 12 9 8 7 5 4 4 4 4 3 3 3 3 3 3 3 3 3 3 3 3 3 4 4 4 5 5 7 7 7 8 9 11 13
16 14 12 13 21 24 20 14 11 11 9 7 6 5 5 4 4 5 5 5 5 4 3 3 3 4 3 4 4 4 4 4 4 5 6 7 7 8 9 9 9 10 16 23
15 25 32 25 21 18 15 17 25 20 12 10 8 7 5 4 4 4 4 4 6 7 7 6 5 5 5 5 5 5 5 5 6 6 7 7 8 9 10 11 14 18 23 27
33 24 19 18 19 19 22 26 28 18 16 15 9 15 8 8 8 6 6 6 5 4 5 7 8 10 10 11 10 9 8 7 8 8 10 9 10 10 10 11 13 15 17 19
28 31 31 26 28 27 42 35 26 30 27 32 28 40 37 25 20 18 23 22 15 25 30 21 19 12 13 14 18 18 18 20 23 22 27 27 29 31 25 20 30 28 31 38
42 50 46 47 46 42 40 46 39 50 51 45 45 63 54 48 45 52 53 44 36 28 36 50 52 57 48 59 40 42 51 51 46 52 51 54 58 70 71 71 67 74 75 77
41 40 42 41 41 42 43 41 46 44 53 58 56 56 71 72 74 66 75 73 78 81 80 78 65 71 66 72 71 86 82 81 86 87 83 87 83 86 90 86 95 100 100 99
40 44 47 46 45 45 41 41 44 44 44 48 52 59 68 76 73 66 65 70 74 64 60 67 72 78 82 88 98 97 98 95 92 94 93 94 76 69 88 93 98 89 85 92
46 49 46 49 46 42 42 41 44 48 44 46 49 50 46 47 42 42 46 44 47 42 44 51 54 56 60 70 77 74 75 79 83 59 60 61 60 60 60 59 62 61 74 75
45 50 52 54 51 50 48 46 44 44 41 39 40 39 38 41 46 48 50 51 50 47 46 45 47 46 45 44 46 45 44 44 48 46 48 50 51 50 51 52 51 52 54 56
57 57 56 56 53 50 50 48 47 44 44 45 44 44 42 42 42 42 42 42 43 46 50 48 48 50 50 51 50 52 51 50 49 50 52 52 57 58 57 55 57 60 65 66
63 62 63 65 63 64 69 68 66 66 65 67 66 62 60 59 58 56 56 54 55 52 51 52 54 53 55 56 56 59 62 65 65 67 69 69 69 70 69 65 64 61 63 64
64 64 62 62 66 68 68 66 65 62 61 60 59 60 60 59 59 57 57 58 58 62 74 82 85 82 78 76 76 76 79 75 75 69 64 61 60 58 56 54 54 58 59 61
64 68 76 78 80 77 74 70 69 66 69 75 78 77 74 74 75 76 77 75 71 71 71 72 72 71 66 65 64 59 58 58 56 52 53 53 52 50 47 48 45 44 46 46
91 92 94 86 84 83 84 86 85 81 74 68 67 69 70 65 61 60 63 65 64 63 64 61 58 57 58 59 58 58 54 51 49 51 56 58 55 48 47 50 49 55 48 47
80 75 84 86 71 80 79 75 72 68 69 64 58 52 51 50 53 59 58 66 78 72 68 65 64 63 65 66 65 65 69 74 71 69 64 64 69 67 56 54 56 56 46 39
64 68 72 77 81 77 76 80 73 70 68 64 61 61 63 63 63 66 66 72 76 75 67 65 61 65 71 78 80 75 69 67 65 56 52 49 46 44 44 45 44 52 50 47
66 74 79 67 66 64 62 69 64 70 66 66 63 59 61 59 45 42 47 55 62 71 79 75 83 89 78 65 66 62 54 50 50 47 42 41 40 39 45 47 45 45 47 37
65 67 64 67 68 68 66 64 61 58 57 55 58 58 56 49 48 45 47 55 66 72 79 83 83 79 75 74 73 68 58 52 51 47 42 38 32 29 27 33 44 45 43 42

GFSCGP_250_rhum_102.txt.gz
RH
100 100 100 98 94 82 88 86 59 66 56 58 44 37 15 12 9 8 8 7 6 6 6 6 6 5 4 3 3 4 3 4 6 6 6 12 18 19 20 15 18 16 15 17
99 98 100 98 92 80 74 85 98 79 60 45 34 32 21 17 10 8 6 7 6 6 6 6 5 4 3 2 2 2 2 2 3 4 4 6 8 10 11 13 11 9 10 13
79 96 93 94 91 89 83 82 80 70 49 34 23 26 24 15 10 8 7 6 5 5 5 4 4 3 3 2 2 3 2 2 3 3 3 3 5 6 7 8 11 10 9 10
54 64 84 84 78 77 76 69 68 66 51 44 31 28 21 18 14 7 5 4 4 4 3 3 3 3 3 3 3 3 3 2 3 3 3 3 4 5 6 6 7 6 7 9
54 61 68 80 78 74 67 61 47 40 32 25 21 28 28 16 4 4 4 3 3 3 3 3 3 3 3 3 3 3 3 3 3 3 4 4 4 4 5 5 6 7 7 8
61 48 42 39 35 35 36 40 33 28 27 28 29 20 14 6 4 3 3 3 3 3 3 3 3 3 3 3 3 3 3 3 3 4 4 4 4 4 4 4 4 5 6 9
67 61 54 51 49 47 47 45 43 34 20 17 15 10 9 11 7 5 5 4 4 3 3 3 3 3 3 3 3 3 3 3 3 4 4 4 4 4 4 4 4 5 5 6
35 36 42 41 44 43 31 26 21 18 12 14 19 13 11 10 7 6 6 7 6 5 4 3 3 3 3 3 3 3 4 4 4 4 4 5 6 7 6 6 6 6 6 8
35 32 31 32 30 24 20 14 19 25 22 20 17 13 11 9 6 5 6 8 9 8 7 5 5 4 4 4 4 4 4 4 4 4 5 5 5 6 6 7 7 7 8 8
24 18 17 15 17 24 34 34 33 31 28 36 24 24 18 9 7 6 5 7 10 12 12 10 7 6 5 5 5 5 5 5 5 6 6 6 6 6 7 8 8 8 9 9
14 23 25 32 40 42 41 38 40 36 45 43 47 49 36 31 26 19 15 10 14 12 13 13 14 15 15 13 11 8 7 7 8 8 8 9 10 10 10 10 10 10 10 11
42 36 35 44 44 43 40 39 58 52 74 69 76 73 57 56 52 45 32 28 32 33 36 31 16 15 16 13 14 18 19 19 18 18 17 16 14 15 15 14 14 12 13 16
30 29 39 45 50 53 58 51 54 64 70 65 72 77 72 62 61 49 52 62 56 59 58 63 56 57 56 44 34 36 32 46 46 49 56 60 58 60 62 66 72 64 58 67
46 56 59 51 46 46 50 53 53 51 47 51 56 60 78 74 66 65 70 75 80 71 59 52 54 66 76 78 78 76 77 76 72 72 74 86 91 88 83 75 76 91 96 84
48 46 49 54 56 50 47 50 48 55 53 53 57 60 59 62 65 56 56 52 47 43 44 48 52 57 60 58 61 60 70 68 66 72 74 72 72 68 63 61 69 73 71 77
65 70 69 69 64 65 63 61 63 61 55 50 46 47 48 48 49 50 49 51 50 51 50 52 53 51 47 46 49 49 48 51 51 56 57 51 49 51 51 51 48 48 56 72
70 70 69 69 69 68 66 65 64 62 62 62 60 58 57 54 52 50 47 45 44 42 41 42 43 44 44 45 45 46 46 48 50 49 48 48 45 44 45 44 45 47 48 48
60 61 62 63 61 62 62 60 61 58 58 57 57 57 55 54 53 51 50 48 48 48 48 47 47 48 50 50 50 51 52 50 49 48 51 54 56 57 57 58 55 54 53 53
84 85 80 78 72 71 70 69 69 70 65 63 64 61 60 59 57 54 55 54 52 52 52 52 56 60 64 66 70 72 70 65 62 68 64 62 58 58 58 57 58 56 54 55
74 70 69 73 71 66 68 70 70 72 67 64 65 68 71 69 68 64 61 58 58 60 64 68 69 70 69 70 70 67 66 68 69 69 68 68 69 68 71 70 70 66 65 65
73 68 69 70 67 66 64 66 67 66 65 66 64 64 62 60 58 57 55 55 57 60 62 63 64 66 65 62 62 65 68 70 69 64 60 58 55 54 53 52 47 45 44 46
67 71 71 76 71 65 63 65 62 68 68 63 69 66 65 62 58 59 64 60 60 68 72 68 62 57 60 64 66 66 66 60 50 45 42 40 40 38 38 39 37 36 36 41
58 61 61 55 56 60 60 61 62 57 52 49 52 51 54 51 52 55 52 44 41 34 32 38 48 55 62 66 60 53 51 51 49 47 48 45 44 40 36 32 28 25 21 20
63 66 66 63 64 63 63 64 63 61 58 55 50 44 42 41 46 47 45 57 54 52 62 67 68 73 64 63 68 68 61 55 54 50 43 40 35 30 28 26 25 21 18 17
68 68 67 64 68 79 73 66 79 71 54 54 50 50 58 55 60 56 51 59 63 68 70 74 80 81 84 78 71 62 59 54 46 38 32 30 31 30 27 23 18 13 10 8
78 69 66 75 90 78 80 80 77 94 82 66 60 59 60 52 59 62 60 63 61 62 67 72 66 67 62 57 48 43 40 33 25 21 22 22 23 22 19 16 11 7 7 7

GFSCGP_250_rhum_105.txt.gz
RH
98 99 93 99 93 86 86 83 69 53 50 52 37 25 21 18 18 16 13 12 11 10 9 9 9 9 7 7 6 7 8 7 8 10 10 9 12 13 12 12 14 15 13 11
92 97 98 95 100 100 99 91 82 70 60 55 49 46 37 26 20 16 14 11 9 9 8 8 8 8 7 6 6 6 5 4 4 4 5 5 5 7 9 10 9 8 10 11
66 72 82 98 99 98 94 92 94 86 79 71 66 49 36 28 29 23 18 16 11 10 8 6 6 6 5 4 3 3 3 3 3 3 3 3 3 4 4 4 5 6 7 8
44 46 50 59 88 99 94 86 81 78 81 68 63 55 55 46 41 37 23 12 7 5 6 6 5 4 4 4 3 3 3 3 3 4 3 3 3 3 3 3 4 4 5 5
47 56 67 79 78 92 89 85 79 70 60 51 46 47 56 53 44 32 24 11 5 6 5 4 4 4 3 3 3 3 3 3 3 3 3 3 3 3 3 4 4 4 5 6
60 63 62 59 58 57 55 52 46 49 56 57 51 45 36 24 22 17 8 6 6 6 4 3 3 3 3 3 3 3 3 3 3 3 3 3 3 4 4 4 4 5 6 6
57 52 52 53 49 45 44 44 44 46 45 37 33 36 30 19 13 9 8 9 7 6 6 5 4 4 4 3 3 3 3 3 3 3 3 3 4 4 4 5 6 6 6 6
41 46 51 56 64 66 65 61 57 49 39 29 24 22 17 13 12 14 9 7 7 8 9 9 7 6 4 4 4 4 4 4 4 4 4 4 4 4 5 6 6 7 7 7
43 49 58 67 69 61 49 37 32 28 25 20 17 19 20 18 19 13 9 9 11 14 16 14 11 8 7 6 5 4 4 4 4 4 4 4 5 5 5 6 7 7 7 8
44 44 45 40 37 31 32 25 22 20 28 35 36 38 42 45 35 21 19 15 11 14 16 17 17 16 11 8 7 6 6 6 5 5 5 4 5 5 6 6 7 8 8 8
25 27 24 22 20 20 25 36 45 64 69 66 68 81 80 83 65 54 43 35 25 21 17 17 26 25 22 18 15 11 8 8 8 8 9 9 8 8 9 9 8 10 9 9
29 35 33 35 39 45 56 62 93 80 70 62 74 82 83 87 78 73 65 53 44 37 59 49 49 42 30 29 28 27 25 18 16 12 12 11 11 11 13 13 13 13 13 12
56 54 49 49 60 64 58 66 71 63 69 75 72 73 71 75 70 64 56 57 60 54 63 59 50 46 40 34 39 36 38 33 35 38 45 48 41 38 41 42 45 50 47 50
58 61 62 64 66 64 68 65 65 65 64 64 65 64 60 58 57 57 61 58 53 45 39 39 41 37 43 43 42 49 49 52 51 55 54 55 62 65 70 66 61 62 60 56
62 62 64 62 61 58 54 51 51 52 54 55 55 55 53 51 50 48 48 48 48 47 46 45 46 47 46 41 40 43 39 45 45 43 47 52 59 59 63 64 65 61 53 56
72 77 76 77 75 75 76 73 72 71 68 66 65 65 62 61 60 57 54 51 50 48 46 44 43 42 42 43 42 42 42 43 44 42 41 41 43 44 45 44 42 42 41 40
64 65 65 64 64 64 63 61 59 59 58 58 59 59 58 56 53 51 49 48 47 46 44 43 42 42 42 42 41 40 40 40 40 40 41 41 41 43 45 47 45 42 41 41
60 60 58 58 56 52 53 53 52 53 52 53 53 52 52 51 49 46 46 46 47 45 44 46 47 47 47 48 49 51 52 54 54 54 54 53 50 47 43 41 40 39 39 40
69 63 61 62 64 68 70 73 74 74 72 72 71 69 66 63 61 61 61 61 60 60 58 56 54 55 58 63 68 70 66 65 66 64 66 67 65 61 59 59 58 56 54 53
72 70 72 74 73 78 70 66 68 67 62 58 70 70 62 64 62 57 57 59 60 62 62 64 68 73 75 72 69 71 74 84 82 76 71 63 62 55 50 49 48 49 51 52
60 60 62 58 57 54 55 56 57 53 50 52 52 51 45 45 46 42 41 42 48 47 48 46 44 43 46 50 51 57 55 52 51 48 43 41 38 38 39 39 36 31 28 28
49 46 46 46 51 53 51 53 53 51 51 52 52 50 45 44 37 36 42 45 45 47 48 51 54 54 54 59 62 63 60 57 55 54 52 49 46 40 38 34 29 25 24 22
68 63 62 63 63 60 60 56 65 65 66 62 64 71 79 76 73 70 77 76 67 61 52 56 62 62 64 64 66 64 68 60 50 44 39 34 28 26 24 22 18 16 15 14
69 67 66 75 73 78 76 87 71 81 78 65 60 66 65 66 68 58 54 49 48 53 56 62 59 61 63 73 64 62 58 56 49 42 35 26 21 19 17 16 15 14 14 15
81 95 85 77 78 80 86 90 100 100 100 100 79 72 67 64 76 69 62 57 51 48 41 44 44 49 46 50 55 60 52 48 40 36 27 21 18 16 14 13 13 13 13 12
80 100 100 95 92 100 93 88 100 100 98 97 100 100 83 88 100 96 83 68 68 63 57 55 49 49 49 62 62 50 50 50 39 35 28 19 15 12 12 12 12 10 9 7

GFSCGP_250_rhum_108.txt.gz
RH
75 78 75 94 96 87 78 73 64 58 62 58 39 36 29 22 18 19 20 18 16 13 12 13 14 13 11 10 10 10 10 9 8 7 7 9 12 15 16 17 18 20 20 15
68 72 84 82 85 72 71 72 66 60 63 58 49 34 32 39 41 31 24 22 17 14 10 10 10 10 10 9 8 8 7 6 5 4 3 3 4 6 6 8 11 13 9 8
55 80 86 98 94 90 78 72 76 71 69 64 61 54 56 52 45 29 21 17 16 17 17 16 12 10 8 8 7 6 5 4 3 3 4 4 4 4 4 4 4 4 5 6
40 41 52 77 95 97 98 98 93 75 72 69 64 64 59 51 31 28 32 35 29 21 14 10 8 6 6 6 6 5 4 4 4 4 4 4 4 4 4 4 4 4 4 4
34 42 50 61 80 96 99 100 98 94 93 75 67 67 60 51 42 38 35 28 20 12 11 7 6 6 5 4 4 4 4 4 3 3 3 3 3 4 4 4 4 4 4 5
36 43 45 45 50 58 60 64 66 68 70 67 69 69 68 58 48 36 27 16 13 13 10 7 5 5 5 5 5 4 3 3 3 3 3 3 3 3 4 4 4 4 4 5
38 41 42 43 41 41 45 52 60 62 66 64 59 56 48 41 24 21 22 20 13 8 8 9 8 7 6 6 5 4 4 4 3 3 3 3 3 3 3 3 4 4 4 5
37 39 40 39 40 58 60 52 49 50 46 38 30 26 30 36 33 17 12 10 12 10 7 7 10 11 10 9 8 6 5 4 4 3 3 3 4 4 4 4 4 4 4 4
38 37 38 42 57 53 46 50 57 57 55 48 39 30 21 17 18 26 24 18 13 12 12 13 13 17 16 12 8 7 6 5 4 4 4 4 4 4 4 4 5 5 5 5
37 39 42 42 42 45 52 56 51 35 27 22 20 22 33 35 37 41 34 27 21 18 16 15 14 15 14 13 13 11 9 7 6 5 5 5 5 5 5 6 6 6 6 7
34 36 38 39 42 42 32 26 22 26 29 35 41 55 48 60 58 47 50 52 35 25 20 17 28 43 50 41 30 22 18 14 13 10 8 7 7 7 6 6 6 6 6 7
31 27 24 21 18 21 27 35 35 39 40 45 58 67 67 65 53 50 45 44 46 40 47 43 35 44 41 43 37 30 34 30 24 24 23 17 13 11 11 11 11 11 11 10
29 33 38 42 39 42 44 54 60 58 60 59 64 68 63 61 70 61 62 67 67 60 60 50 54 56 53 46 46 40 41 40 38 47 46 47 46 44 39 38 32 27 24 22
50 56 64 71 64 68 73 82 86 76 65 63 65 61 60 59 57 56 56 57 56 52 49 46 46 45 44 43 40 38 38 39 41 43 43 45 48 49 53 51 54 53 48 48
57 58 58 59 59 60 62 62 61 60 62 61 63 62 60 55 51 50 49 47 44 43 42 42 42 41 40 38 38 38 37 36 35 35 36 36 37 37 39 44 48 50 54 56
60 60 59 60 58 58 58 58 56 56 56 55 55 55 54 54 53 52 51 49 49 49 47 45 44 44 43 41 39 39 40 41 42 43 43 44 44 44 45 45 44 44 43 43
56 55 55 56 56 58 58 62 62 61 62 60 58 54 50 49 49 48 47 46 47 48 50 53 50 46 50 56 57 57 57 58 59 61 61 60 59 55 49 47 44 42 40 38
52 53 51 55 56 56 58 60 61 60 54 50 55 62 55 48 53 60 55 52 50 53 55 53 55 56 54 56 58 61 68 71 68 63 68 70 67 59 53 50 48 46 46 47
60 58 61 61 55 54 52 53 52 50 54 54 55 53 51 47 49 48 43 45 46 47 46 45 49 59 62 63 61 62 63 67 66 66 67 64 58 55 54 52 48 45 41 37
53 54 57 56 61 72 77 71 67 65 68 73 74 71 68 65 63 57 57 67 68 59 50 48 53 55 63 69 68 74 72 71 68 65 61 58 52 43 38 33 27 23 21 21
57 63 60 64 65 73 80 95 98 95 68 61 65 67 64 67 64 62 55 50 47 58 53 60 64 62 63 58 66 81 82 73 68 67 66 62 59 55 51 39 30 23 21 16
70 74 71 72 71 76 83 97 100 100 100 100 100 82 62 70 72 78 65 61 63 56 50 50 48 50 49 50 51 56 59 62 65 61 52 45 40 35 27 24 24 22 19 16
87 100 99 99 100 100 96 89 83 99 85 91 86 88 94 97 100 100 96 74 78 86 89 74 64 66 66 62 55 56 60 55 53 49 49 42 33 33 27 21 17 16 14 11
69 84 65 61 66 89 91 88 91 89 72 79 77 88 88 75 96 100 100 76 81 96 95 82 86 74 84 74 66 57 51 54 60 52 56 57 42 43 29 18 16 14 12 9
83 63 63 70 75 80 74 73 70 70 88 89 97 99 89 85 85 72 76 98 89 75 76 78 73 78 79 83 73 73 70 68 63 66 68 61 52 43 35 25 16 13 11 9
46 35 57 75 66 58 78 69 61 65 63 74 88 87 75 92 82 70 92 80 82 89 88 75 71 68 72 70 71 78 89 80 80 80 63 54 47 39 32 25 16 13 10 9

GFSCGP_250_rhum_111.txt.gz
RH
32 33 46 55 45 50 41 38 34 30 31 24 24 37 31 27 29 27 22 22 21 18 17 14 13 13 14 14 13 13 13 10 10 10 10 10 10 10 12 12 11 14 12 12
37 35 38 36 46 53 50 50 46 50 48 42 29 32 31 22 18 20 22 26 16 12 12 12 12 12 12 11 11 10 10 8 8 8 6 5 5 5 5 5 5 6 6 7
39 36 35 39 48 50 62 59 49 47 45 46 49 50 42 36 32 20 21 18 17 18 16 13 12 11 11 10 10 9 8 7 6 5 5 5 5 5 4 4 4 4 5 6
35 34 34 39 46 54 64 73 73 55 52 53 56 60 48 39 34 35 42 42 29 21 18 14 14 13 11 9 7 6 6 6 6 6 5 5 4 4 4 4 4 5 4 5
36 38 37 42 42 50 67 82 83 89 90 83 82 71 65 59 56 45 40 34 25 15 14 16 13 11 8 7 7 6 6 5 4 4 3 3 3 3 3 3 4 4 4 4
37 39 37 36 36 42 52 61 77 87 88 90 79 72 70 67 70 63 43 25 21 17 14 13 11 10 9 7 6 5 5 5 5 4 4 3 3 3 3 3 3 3 4 4
37 37 37 38 39 42 44 54 58 61 63 66 62 57 49 41 38 33 30 26 17 13 12 9 7 7 8 8 8 9 9 9 8 6 5 4 3 3 3 3 3 3 3 3
34 37 37 35 36 39 39 38 42 41 38 38 40 41 40 37 34 29 30 24 15 10 14 13 10 10 12 16 17 17 13 10 8 7 6 5 5 4 4 4 4 4 4 4
36 35 35 36 36 33 35 36 35 35 38 45 39 36 38 41 33 22 18 16 20 16 14 12 21 21 26 25 23 20 14 13 13 10 9 8 7 6 5 4 4 4 4 5
30 31 31 32 32 35 36 34 38 39 40 45 48 36 22 19 23 32 33 36 37 41 36 29 31 34 33 33 22 26 27 21 17 18 19 11 9 9 9 8 8 7 7 7
30 32 32 34 35 36 38 37 39 41 36 28 24 30 38 39 45 54 52 56 67 48 54 54 53 55 52 51 49 46 46 44 36 31 27 27 24 16 12 10 10 10 10 10
32 33 34 34 35 36 36 31 24 39 38 45 53 64 70 70 72 69 61 62 62 65 56 51 48 44 42 42 41 39 38 37 37 39 36 35 35 39 42 41 34 29 22 21
31 31 28 25 31 39 50 61 65 64 60 62 68 66 60 55 53 53 52 52 50 49 47 46 46 45 42 41 43 44 44 43 41 40 40 41 42 41 40 41 42 51 57 58
34 34 37 36 43 51 52 50 50 51 51 53 54 54 54 55 55 55 54 53 52 52 51 51 50 49 53 56 57 55 53 51 50 51 53 54 53 52 51 49 44 40 38 37
52 53 55 55 56 56 57 56 56 56 56 57 58 57 59 60 64 67 66 64 64 62 60 58 57 61 61 62 62 66 66 66 66 64 63 58 56 59 60 57 54 54 55 54
47 48 51 52 55 56 59 62 63 65 70 76 80 71 54 52 55 57 54 50 47 47 48 51 51 52 54 58 57 56 54 52 51 49 49 53 54 54 51 46 44 41 39 41
63 63 62 61 61 62 57 55 51 51 51 52 53 49 51 52 50 51 53 53 52 50 49 46 48 51 55 55 53 53 56 47 47 52 65 78 72 62 55 51 45 37 30 28
50 51 55 60 59 55 55 60 64 70 68 67 62 58 55 54 55 53 52 50 53 56 57 56 55 52 54 51 58 68 71 72 75 78 79 73 63 57 53 52 46 37 34 32
57 59 62 76 90 98 98 93 86 96 90 74 62 59 59 65 80 65 58 60 66 60 64 54 51 54 54 52 57 55 57 56 60 63 60 60 59 54 50 48 43 38 34 35
74 81 88 82 65 65 78 91 81 76 93 73 70 59 54 73 94 99 100 72 57 54 52 55 63 66 64 61 57 57 57 60 59 56 59 53 49 52 40 37 30 26 24 23
74 74 82 84 97 100 100 94 97 88 84 96 99 100 91 71 70 68 59 59 65 68 57 52 59 64 64 60 59 59 64 62 64 63 62 65 55 58 48 34 28 20 18 17
50 61 66 66 61 63 70 70 67 71 80 83 87 94 100 82 72 78 79 79 72 61 69 61 62 64 65 72 80 92 74 76 83 84 87 83 69 71 52 42 38 24 18 16
59 51 48 46 71 70 58 56 63 60 63 69 67 74 90 82 88 79 82 88 90 83 82 84 83 93 83 83 81 92 92 88 91 87 90 86 83 72 65 52 44 32 19 15
100 86 78 71 64 55 59 92 100 100 95 87 97 92 80 84 100 81 82 87 94 92 86 87 86 91 84 92 78 86 86 96 96 96 98 94 86 79 66 49 34 27 18 13
78 99 100 100 97 94 95 76 70 78 100 100 96 91 95 96 100 100 100 96 73 82 94 92 90 88 96 86 80 84 82 83 92 91 99 83 81 68 73 60 46 27 16 13
72 51 55 75 91 100 100 100 100 100 96 98 89 81 71 64 100 96 76 63 72 72 86 87 100 100 98 98 100 94 89 86 92 92 98 92 86 78 83 75 46 23 15 12

GFSCGP_250_rhum_114.txt.gz
RH
33 30 32 35 35 32 32 30 33 35 35 30 31 31 26 43 58 76 69 69 74 76 77 72 60 50 46 48 48 44 26 24 26 29 28 15 10 11 11 11 11 10 9 9
35 35 33 36 34 35 36 34 37 36 32 33 32 32 28 22 25 28 29 26 27 27 26 23 21 15 14 14 13 12 11 10 10 9 8 9 8 7 6 5 5 5 5 5
36 36 33 33 33 32 34 42 44 46 43 46 45 38 34 32 30 23 19 17 18 17 18 17 15 15 14 13 13 13 11 10 9 7 7 6 7 6 6 6 6 6 5 5
41 37 36 35 35 39 43 44 46 50 51 58 60 57 63 39 34 34 28 24 25 25 20 18 16 14 17 17 14 11 10 9 8 8 7 7 6 6 5 4 4 4 4 5
44 41 38 37 37 39 41 38 39 47 58 67 68 61 63 54 48 42 49 52 43 36 24 15 18 23 19 13 11 10 9 8 8 6 6 5 5 4 4 4 4 3 4 4
42 42 42 40 40 41 39 36 38 43 46 48 52 61 80 75 73 59 55 51 40 33 23 22 18 16 14 12 10 10 9 8 7 8 8 8 8 7 6 5 4 4 3 3
34 39 40 39 41 41 39 37 39 38 38 45 48 52 58 58 58 54 50 48 42 35 26 18 18 14 12 12 13 12 12 12 14 16 16 13 10 8 7 5 5 4 4 4
35 36 38 40 40 42 39 34 32 33 36 39 43 42 42 42 42 41 43 41 36 31 26 18 17 16 16 22 27 28 26 28 25 23 18 15 11 9 7 6 5 5 5 5
33 37 40 40 40 37 35 32 31 33 36 37 37 36 36 43 43 41 41 36 25 24 34 32 37 48 50 46 44 35 36 33 35 30 28 25 24 22 17 10 8 8 8 8
38 38 39 38 34 34 33 32 32 32 34 36 39 42 41 41 34 25 32 38 45 55 55 56 57 47 40 39 41 38 34 27 28 32 37 37 34 30 29 29 25 21 14 11
35 34 34 33 33 32 31 31 33 37 38 39 38 36 38 41 47 50 48 54 55 54 56 48 40 38 41 45 45 42 41 43 47 49 50 48 46 43 40 38 35 31 28 26
28 30 28 30 31 32 35 37 39 41 39 42 50 52 55 59 54 48 49 50 50 49 47 45 46 49 50 50 51 58 62 65 67 66 63 59 52 51 55 53 48 46 48 47
32 33 35 36 36 34 34 32 35 41 43 45 54 52 52 52 51 51 51 51 51 52 51 51 52 55 56 58 60 65 63 58 54 50 48 50 51 46 40 39 37 36 36 36
31 34 36 39 41 45 48 49 52 54 55 55 55 54 53 55 58 59 56 53 51 49 48 48 54 56 54 48 51 55 51 46 44 44 44 43 38 35 33 35 35 33 31 30
49 49 49 50 49 51 52 54 57 56 55 56 50 45 45 52 52 48 48 47 46 48 48 46 45 44 44 47 44 46 42 44 46 44 54 57 57 58 61 63 58 54 50 46
54 56 55 52 46 45 44 47 47 48 50 54 54 59 61 60 60 60 59 54 56 54 57 58 55 58 53 54 57 60 66 69 72 67 68 64 67 60 58 55 51 48 43 37
51 51 53 56 61 66 70 76 69 60 58 58 63 81 89 87 66 56 55 53 54 51 53 55 54 49 53 53 64 62 66 62 64 73 76 84 80 75 67 60 58 54 48 41
53 58 75 93 91 85 74 74 65 69 65 68 66 65 62 67 71 63 66 62 61 72 61 56 64 72 69 72 73 81 87 93 98 99 88 88 88 82 80 78 71 61 47 38
59 67 69 70 71 72 70 65 72 70 69 70 70 80 68 67 66 78 74 78 76 75 81 74 80 76 73 79 85 76 78 76 80 84 86 88 92 85 82 75 67 56 50 41
44 45 52 53 54 53 50 57 55 58 61 55 49 50 57 57 64 76 92 88 82 72 72 79 83 83 95 94 88 91 93 85 70 76 78 88 84 81 84 77 64 58 49 41
58 55 54 57 60 60 61 77 93 98 98 91 91 95 93 95 92 70 65 87 76 71 64 68 72 70 80 86 93 90 87 74 72 64 63 76 80 90 79 79 71 61 56 38
52 53 67 72 72 68 77 75 67 77 77 90 91 100 99 82 80 69 71 90 80 60 68 93 92 74 56 54 57 60 63 61 66 60 62 71 79 89 91 88 87 74 62 52
59 54 60 65 91 83 92 98 100 100 99 100 99 100 100 98 98 98 98 91 89 91 80 70 100 94 90 90 90 75 78 61 56 60 66 64 68 79 88 92 92 77 69 63
38 46 47 46 51 53 46 51 49 72 76 76 74 82 96 99 98 97 100 100 98 100 100 100 92 100 99 97 96 88 92 81 79 81 80 79 87 80 88 98 97 89 75 66
47 35 44 41 55 51 42 60 63 60 48 47 61 65 53 56 63 74 78 76 70 70 75 85 86 97 100 100 98 92 95 93 97 93 90 94 90 84 86 91 93 84 79 62
97 98 90 80 88 93 88 91 68 70 68 74 70 60 59 64 64 67 71 63 81 90 94 95 98 90 97 100 100 99 96 99 96 88 88 91 91 78 86 97 83 84 80 53

GFSCGP_250_rhum_120.txt.gz
RH
15 15 17 17 19 19 19 22 22 22 20 21 21 26 26 26 24 22 25 22 20 18 17 28 30 24 18 19 21 19 20 21 21 22 24 26 22 20 20 21 20 18 15 10
20 16 14 15 16 17 18 17 17 18 18 18 20 22 27 26 25 22 20 19 21 22 21 19 20 22 24 23 21 22 22 20 19 19 18 16 14 12 10 10 10 9 9 8
22 20 18 15 15 15 17 17 18 18 19 19 20 21 23 26 26 24 20 22 26 28 28 29 30 32 35 33 26 22 19 16 15 15 13 12 11 11 10 9 8 9 8 8
23 20 18 17 17 17 18 19 19 17 19 20 20 21 25 25 23 25 35 39 42 37 33 34 36 39 34 24 27 26 21 21 20 16 17 15 13 13 12 12 11 10 9 8
31 31 28 26 26 25 25 26 26 26 26 24 23 20 27 33 31 36 46 39 37 36 40 50 50 38 32 28 31 31 28 26 24 24 23 20 15 12 12 12 14 15 15 13
37 35 32 33 30 30 32 35 34 32 31 34 37 32 45 43 38 35 36 39 40 35 36 34 35 37 36 33 31 29 29 27 21 16 13 15 25 35 29 28 26 24 24 24
36 36 33 39 37 38 41 42 42 41 41 42 40 39 44 42 42 42 40 38 35 36 33 34 33 32 32 30 30 26 21 20 26 33 42 48 51 43 40 35 32 31 29 26
42 37 38 44 48 45 45 47 49 46 43 44 44 45 43 43 40 38 34 33 32 32 32 30 30 30 33 28 24 30 38 44 44 45 44 43 42 40 36 32 30 29 28 26
45 40 44 48 52 52 55 55 53 51 47 47 46 45 42 39 36 34 32 29 29 29 29 32 33 28 40 48 47 42 39 42 43 47 54 54 43 37 33 32 31 31 31 28
48 44 44 49 56 57 52 56 56 52 51 50 46 40 37 37 35 31 29 29 32 32 31 40 46 48 45 42 41 44 48 55 57 56 50 41 32 32 35 41 41 38 35 32
44 41 45 48 48 48 50 54 55 53 50 44 39 35 35 32 30 31 30 30 36 41 45 45 47 47 48 50 53 54 50 46 42 38 35 37 39 48 55 57 53 55 54 52
34 38 40 40 40 46 50 51 51 49 38 34 35 32 32 30 37 47 46 46 46 46 46 42 40 41 42 41 39 42 37 39 38 40 46 58 71 72 76 76 72 72 77 73
28 30 33 37 42 47 47 46 38 34 35 32 32 35 47 48 48 47 44 42 41 44 44 45 45 50 52 54 64 69 66 65 61 72 76 77 70 69 70 77 72 74 82 77
31 33 37 39 39 38 38 37 35 35 37 46 48 44 42 44 47 44 47 50 54 58 66 86 66 66 56 52 51 49 53 62 61 63 61 62 62 66 79 81 84 83 91 89
31 32 33 34 34 34 35 41 48 47 44 44 45 49 53 60 72 65 63 63 59 59 60 56 54 54 56 58 66 74 70 66 64 65 68 67 67 67 75 83 81 83 78 78
43 44 43 43 44 47 46 44 45 51 48 54 56 55 65 71 67 65 61 64 63 64 72 84 83 85 81 86 93 97 95 86 86 96 86 86 83 81 76 76 74 73 75 76
46 46 46 43 45 49 47 50 51 51 56 56 52 52 56 48 52 61 60 68 87 99 100 100 100 100 100 100 100 100 100 100 100 100 100 100 100 100 100 96 90 78 78 81
31 31 31 32 34 38 39 39 36 36 37 37 44 54 72 73 77 67 85 85 91 90 100 93 85 72 80 78 94 98 96 100 100 100 93 99 100 100 100 100 100 98 86 95
28 31 32 33 30 33 38 38 39 42 41 45 50 58 55 53 61 78 60 56 64 64 62 65 73 75 81 83 84 86 78 89 88 98 95 100 100 100 100 97 100 84 92 97
32 32 30 30 30 32 34 36 36 39 48 45 46 50 53 57 58 57 56 60 67 71 79 90 92 90 89 99 100 100 100 98 93 87 84 84 78 86 94 91 88 90 92 89
55 52 55 52 42 50 54 50 53 58 61 64 61 54 52 57 64 67 59 58 58 57 65 70 80 82 80 87 98 100 100 100 100 100 100 94 86 93 84 90 87 81 83 83
84 74 59 68 80 72 74 82 81 75 80 87 85 84 85 79 76 75 72 78 89 83 81 77 78 85 86 88 97 98 95 100 100 100 100 100 100 99 94 96 88 88 74 70
100 99 90 90 83 94 90 100 100 100 100 100 100 100 100 100 100 100 100 95 85 91 98 97 100 100 100 100 100 100 94 100 100 100 100 100 96 99 96 87 81 81 79 90
100 100 100 99 100 100 76 72 100 100 100 100 100 100 100 100 100 100 100 100 100 100 100 100 100 100 100 100 100 100 100 100 100 100 100 100 97 95 94 96 77 63 63 87
100 100 100 100 100 100 97 95 73 81 89 100 100 100 100 100 100 100 100 100 100 100 93 98 99 100 94 100 100 100 100 100 100 100 100 98 100 100 84 80 70 50 60 66
100 100 100 100 100 100 100 96 87 98 88 81 98 100 100 100 100 100 100 96 100 100 100 95 96 98 100 96 100 100 100 100 100 100 100 93 91 96 83 62 64 55 50 64

GFSCGP_250_rhum_123.txt.gz
RH
15 17 19 28 42 57 72 86 84 76 70 64 59 57 52 49 48 45 42 33 23 18 18 20 18 18 17 17 20 20 19 20 20 18 17 16 17 16 14 14 13 12 11 10
16 16 17 21 27 34 39 43 49 52 48 45 46 45 43 41 38 34 27 24 21 20 19 21 21 22 22 25 25 21 19 20 22 24 24 22 20 18 15 13 12 13 13 12
15 16 15 17 22 27 30 33 36 39 38 33 31 33 34 31 26 22 19 19 21 24 25 25 26 29 25 22 24 26 26 29 28 28 26 24 23 22 22 19 16 15 15 14
17 16 16 15 17 21 25 27 28 26 24 23 23 23 20 20 19 19 19 20 21 24 28 30 29 23 22 25 29 31 32 29 30 30 29 29 28 27 25 23 19 16 14 14
21 18 19 18 16 16 19 21 23 23 22 19 20 20 20 18 20 21 22 27 28 28 30 24 27 25 27 32 34 32 30 29 30 29 30 29 27 21 18 17 18 21 24 28
27 26 24 20 18 17 16 16 17 20 20 20 21 20 25 26 26 28 30 30 27 23 26 30 28 32 34 33 31 28 28 29 28 27 24 23 27 28 31 32 35 36 37 35
30 28 26 24 24 22 22 23 23 23 22 24 25 28 37 39 34 34 31 31 30 28 30 35 36 30 29 27 27 28 28 25 26 35 42 38 38 39 40 41 39 37 36 32
32 30 28 27 29 29 29 28 28 30 34 40 38 40 39 39 40 39 36 34 37 39 36 31 28 26 26 27 27 23 32 40 43 40 41 43 43 41 40 38 39 36 36 39
30 32 34 40 36 35 33 35 42 46 45 46 43 43 45 43 41 40 40 39 35 32 28 27 27 27 26 30 38 41 43 43 43 43 40 40 42 42 40 42 40 40 39 40
39 42 45 40 42 40 39 46 47 48 51 52 51 49 49 47 46 42 34 31 29 29 29 28 34 38 38 39 40 43 44 40 39 45 46 48 48 52 51 56 56 60 60 60
40 47 47 42 44 51 52 51 52 54 55 54 53 52 48 38 34 32 31 31 32 38 44 41 38 37 37 40 43 47 44 47 48 48 51 60 65 64 63 63 69 72 72 73
43 48 45 43 47 51 53 56 54 49 47 51 47 40 36 34 31 31 39 44 43 40 37 39 42 48 50 51 51 56 62 62 69 67 72 80 77 75 80 81 80 70 70 70
39 46 48 48 50 51 51 45 43 44 42 40 35 33 32 37 43 43 40 39 41 45 50 54 55 50 55 56 65 75 80 82 70 70 72 76 76 85 82 76 79 81 78 78
43 49 49 47 46 45 38 39 40 39 36 35 38 44 44 42 39 42 43 44 48 53 52 55 71 82 78 78 92 96 92 84 85 100 100 96 97 84 89 95 100 100 100 100
37 38 35 32 33 35 36 36 37 42 44 45 44 44 44 44 45 46 47 51 60 73 70 66 82 78 83 91 92 85 86 97 99 97 98 100 98 99 98 93 90 93 95 92
28 28 29 28 31 36 44 46 45 44 44 44 43 45 47 48 49 48 58 67 68 60 58 67 75 65 87 88 92 86 95 99 100 97 100 100 93 88 80 80 85 82 84 92
34 35 37 37 39 42 43 42 39 38 39 40 42 42 44 47 50 51 50 55 59 62 68 64 71 85 96 90 95 97 89 98 100 100 100 100 100 100 97 88 76 68 82 85
26 29 32 32 32 33 33 35 36 38 38 38 42 45 47 46 48 52 54 59 63 62 68 78 84 86 87 88 98 100 100 100 100 100 100 100 100 100 100 100 100 100 94 92
34 34 33 35 37 40 42 41 46 47 45 46 48 45 49 52 57 55 48 50 51 56 57 62 66 66 59 56 60 71 74 71 86 99 84 87 93 93 100 100 88 91 87 92
40 45 45 49 49 42 46 50 54 57 66 68 64 68 60 54 57 44 48 64 74 75 80 82 89 97 98 80 73 78 74 69 79 100 96 96 100 100 96 86 100 98 98 86
81 78 55 54 67 63 61 61 82 92 94 91 90 90 91 93 96 98 93 92 100 100 100 100 100 100 100 94 87 98 91 84 100 100 99 99 93 94 100 100 100 100 100 99
100 100 100 99 98 89 77 75 98 100 100 100 96 100 100 100 100 100 100 100 100 100 100 94 100 100 100 99 100 100 94 100 91 90 100 97 99 100 100 100 100 100 99 100
100 100 100 100 100 100 100 100 100 99 98 100 100 94 77 100 100 100 100 100 100 100 100 100 100 100 99 95 100 92 92 97 96 93 99 82 95 99 100 100 100 100 97 100
100 98 100 100 100 100 100 100 100 100 100 100 100 100 100 100 100 100 100 94 95 98 98 99 100 100 100 99 90 98 100 100 100 99 100 100 100 100 100 100 100 100 100 96
100 100 100 94 90 89 77 97 100 100 100 100 100 100 98 98 100 100 100 98 93 89 89 77 85 86 85 95 90 90 99 99 98 100 100 100 100 98 91 76 90 89 83 70
88 85 87 100 100 100 100 85 84 100 100 100 99 100 89 82 86 92 92 91 91 98 100 100 97 97 100 99 99 98 95 100 100 97 96 90 86 79 82 79 69 67 66 56

GFSCGP_250_rhum_126.txt.gz
RH
16 17 17 20 23 28 56 95 100 100 100 100 100 100 100 100 97 90 87 83 80 61 54 45 39 34 20 17 17 16 15 16 15 16 18 18 19 21 21 22 22 22 20 18
14 17 17 18 20 23 29 63 96 100 100 100 100 99 98 95 88 81 74 69 55 44 39 34 29 22 18 17 18 19 19 16 18 19 20 20 22 24 24 23 23 23 23 23
17 15 16 17 18 21 25 40 85 98 100 100 100 89 92 89 79 71 64 53 41 33 30 29 26 20 18 19 19 17 19 21 19 21 24 27 26 25 24 24 23 23 22 20
20 14 16 17 17 19 23 27 49 84 94 99 97 91 85 79 69 57 48 42 31 27 28 21 18 19 20 19 21 22 21 21 26 30 28 27 26 24 24 23 20 18 20 24
20 15 14 16 19 19 22 23 27 39 53 64 66 56 45 39 38 37 34 26 23 23 21 18 20 23 24 26 25 26 31 33 32 27 26 26 25 24 23 28 33 34 38 41
23 19 15 15 18 18 19 21 22 25 28 31 32 31 32 30 29 28 26 23 21 20 20 22 26 30 34 36 38 37 34 30 27 27 26 25 29 36 38 40 44 43 37 37
20 24 27 24 19 21 21 22 22 21 24 26 23 25 28 27 25 26 24 22 20 25 29 35 38 42 41 38 36 31 27 26 24 26 32 36 40 44 43 43 40 40 42 44
26 28 28 24 21 22 22 22 22 21 21 22 23 23 23 24 21 21 22 27 31 36 38 41 39 36 35 31 26 25 23 27 35 37 41 46 44 37 39 44 45 47 51 55
27 31 29 28 24 21 21 22 20 20 19 20 20 20 22 25 29 34 39 42 42 41 39 38 35 29 26 26 28 37 40 43 43 43 43 42 44 49 51 53 70 70 65 68
29 33 32 34 35 32 28 25 24 26 27 25 26 29 36 41 43 45 44 43 41 38 33 28 26 29 38 42 40 38 38 39 40 41 44 49 53 58 59 62 62 65 72 77
34 35 36 36 32 30 29 31 32 30 32 35 39 44 46 49 47 44 40 34 30 26 25 35 44 44 40 38 41 41 41 42 43 48 54 56 54 53 56 64 75 76 79 82
33 35 41 40 36 37 36 35 36 39 40 45 48 49 45 41 38 31 27 25 30 41 44 42 42 39 43 46 50 48 48 49 55 63 75 82 84 86 85 92 86 79 80 83
34 43 44 41 44 46 45 45 46 50 51 47 40 37 36 29 26 28 39 42 42 41 44 47 47 50 48 51 56 73 84 80 91 83 90 98 100 97 92 94 94 91 94 92
38 46 45 42 44 46 48 50 51 47 39 35 33 28 29 38 40 39 38 40 46 45 45 48 46 49 53 58 62 70 82 87 100 99 94 100 100 100 100 100 100 100 100 100
40 44 44 43 44 46 46 46 40 34 31 29 38 37 36 37 39 44 43 44 41 41 43 51 59 65 77 79 84 94 99 99 100 100 100 100 100 100 100 92 100 99 93 100
38 40 43 45 43 36 31 31 31 35 36 36 41 44 43 41 38 38 43 46 51 52 55 55 59 74 90 100 100 91 80 71 74 73 68 64 75 93 81 79 92 97 90 91
31 31 30 31 33 33 32 30 32 35 37 40 39 41 45 47 46 50 51 57 59 61 68 78 81 78 72 68 79 77 62 53 62 67 75 77 75 80 84 97 98 91 88 89
28 29 31 32 34 35 35 38 42 43 45 43 45 46 48 50 54 53 55 59 58 57 56 60 65 66 60 60 64 70 83 100 100 94 100 91 92 93 80 79 91 86 92 99
41 45 47 45 46 47 55 54 61 68 60 54 54 62 65 62 47 59 52 68 72 75 90 90 94 96 91 96 100 100 100 100 100 100 92 88 92 85 94 95 100 100 100 97
72 49 46 44 48 52 55 55 66 73 64 61 81 83 83 87 85 59 92 100 100 100 100 100 100 100 100 100 98 99 100 100 100 100 99 85 72 75 97 95 99 96 94 100
100 100 100 100 96 82 55 63 68 61 75 81 90 93 85 82 88 95 81 84 94 96 74 60 77 96 96 95 81 80 88 80 80 78 69 71 86 91 81 93 95 96 98 99
83 95 100 100 100 100 100 100 100 100 100 100 96 96 99 96 95 100 99 94 81 72 68 69 82 100 98 90 95 89 72 78 89 82 80 93 96 99 99 100 100 97 98 98
100 66 80 100 68 70 100 100 100 99 100 100 100 94 100 100 100 100 100 100 100 100 100 100 100 100 100 100 100 100 96 100 92 89 96 93 96 100 100 99 100 100 99 91
58 72 54 68 65 61 71 85 90 88 100 100 100 97 79 61 57 68 76 77 67 70 69 65 70 74 75 70 67 82 95 98 99 99 100 100 100 100 96 99 100 99 100 97
90 100 100 100 100 100 100 100 100 100 100 100 100 100 100 100 98 88 83 93 87 83 82 92 96 87 84 89 91 86 83 86 93 97 100 100 100 94 84 86 86 88 89 92
96 99 100 100 100 89 98 100 88 86 83 86 84 84 80 80 81 87 98 98 89 84 78 76 81 78 72 77 90 87 92 89 88 90 92 81 82 73 79 71 53 51 52 59

GFSCGP_250_rhum_129.txt.gz
RH
17 21 22 23 22 21 23 32 41 70 94 90 100 100 100 100 100 100 100 96 82 89 81 55 64 66 72 64 41 18 18 19 20 17 14 15 16 17 17 16 15 17 22 25
16 18 23 22 22 24 26 29 30 38 64 90 95 94 100 100 99 97 85 83 73 64 68 67 69 68 54 34 26 22 22 18 16 16 16 16 17 17 16 19 24 25 23 22
17 20 23 24 22 21 21 24 29 44 55 81 100 98 100 100 100 88 75 69 64 64 61 60 52 49 42 38 29 21 20 19 17 17 18 18 19 22 28 27 24 23 22 20
18 18 20 24 23 22 23 24 32 36 41 54 66 95 99 92 89 85 76 70 65 65 61 41 36 36 34 26 23 20 19 18 18 20 22 28 31 30 25 24 22 20 23 29
21 19 17 21 24 21 22 25 27 29 32 34 39 54 76 84 81 71 65 57 60 56 44 41 35 29 28 25 23 19 18 22 27 32 34 31 28 26 23 23 30 32 36 36
27 23 22 21 23 23 23 22 24 24 26 27 29 39 37 55 52 42 38 32 32 38 37 29 28 28 24 24 22 23 29 34 33 31 29 27 25 27 34 35 38 39 37 38
26 26 24 23 21 21 21 22 24 24 23 24 26 28 29 36 37 34 33 37 34 28 27 28 24 25 22 23 30 34 35 33 29 28 26 30 36 37 40 38 37 41 48 50
18 25 25 24 22 20 19 20 22 22 23 23 23 25 26 28 26 24 24 23 25 26 26 23 22 24 31 36 38 37 30 28 27 34 36 36 38 40 41 46 51 54 54 56
12 16 24 24 22 21 19 19 19 20 22 24 24 24 24 24 24 23 23 23 23 21 21 25 32 35 39 38 31 30 30 36 34 34 38 44 46 48 53 58 57 52 50 58
11 14 18 23 25 25 26 21 22 22 24 26 25 24 25 24 23 23 21 22 23 26 33 37 40 36 30 30 34 39 39 40 42 43 46 49 49 48 51 56 60 66 70 77
13 16 20 26 30 32 29 26 24 23 23 23 22 23 22 23 23 23 27 30 34 39 41 37 29 29 37 40 41 44 45 44 46 48 51 58 57 59 64 73 95 100 100 100
17 21 27 34 36 35 34 31 27 25 24 22 21 21 24 28 30 33 38 41 41 36 28 28 39 39 39 46 48 45 44 46 53 64 67 76 92 100 100 95 100 100 95 99
31 38 40 39 36 33 28 27 26 24 23 27 30 35 36 40 41 40 37 33 27 31 39 37 37 45 46 51 48 53 63 71 80 88 79 94 100 100 100 100 99 97 82 100
32 33 35 35 34 35 33 31 31 33 38 43 44 44 43 38 33 28 27 34 33 32 38 47 52 50 47 57 66 68 74 96 88 95 81 74 72 71 69 65 72 76 76 69
34 35 38 39 38 39 42 46 50 50 48 48 44 36 31 29 32 33 32 34 40 48 46 48 49 59 67 73 77 91 84 74 70 65 60 62 63 62 68 94 84 80 72 83
40 41 41 42 44 46 46 44 43 46 42 34 33 34 33 34 36 38 41 44 47 51 57 59 55 59 69 69 57 57 55 59 70 78 95 100 100 100 100 100 83 82 69 72
45 45 45 46 45 42 39 35 35 35 34 32 31 33 36 40 41 46 54 57 59 62 61 60 60 58 56 64 75 73 76 94 100 100 98 98 99 100 100 100 99 85 73 69
34 35 35 34 34 33 32 31 30 29 36 40 43 47 48 49 54 52 52 53 63 66 80 88 82 77 87 97 99 100 100 100 100 100 100 92 96 95 87 84 91 89 98 88
36 37 39 42 42 36 43 50 55 58 64 70 65 66 71 76 72 74 78 81 87 97 100 100 100 100 100 100 100 100 98 98 100 91 71 66 66 66 72 77 88 93 93 84
57 61 59 51 61 56 55 57 65 78 74 72 82 84 66 63 58 45 69 68 67 68 77 80 76 69 66 66 69 69 65 70 85 89 98 100 91 77 69 78 77 78 83 85
100 100 100 100 100 100 100 100 99 88 94 86 93 100 92 86 80 62 52 58 69 74 62 58 54 54 46 46 48 57 70 81 90 92 91 90 89 90 80 80 89 88 88 88
52 62 60 71 94 100 89 90 93 100 100 96 89 87 92 89 93 84 85 83 73 72 69 67 73 72 64 68 70 72 76 84 89 86 82 76 78 85 84 98 100 100 96 91
54 43 38 35 32 40 39 40 45 55 64 62 56 65 68 75 90 98 99 99 92 86 94 99 100 88 77 78 89 80 73 68 61 57 58 55 56 58 63 70 74 90 77 61
46 47 51 52 49 58 94 100 100 100 100 100 100 100 98 98 88 77 78 72 71 65 64 68 77 69 52 46 42 40 38 41 44 46 48 53 54 60 63 58 50 51 49 48
100 100 100 99 96 89 96 100 100 100 100 100 100 100 92 78 74 74 60 59 52 46 45 42 37 37 38 40 39 44 49 48 53 57 57 53 55 52 51 43 32 31 30 28
87 86 82 81 89 91 94 92 96 100 95 88 90 83 80 66 56 52 53 50 45 42 46 48 49 47 58 58 54 54 58 61 58 55 55 51 47 46 38 24 20 20 22 22

GFSCGP_250_rhum_132.txt.gz
RH
17 18 20 22 37 55 57 49 42 38 32 30 61 100 100 100 100 100 100 100 100 100 100 100 100 100 100 77 48 48 55 57 51 26 16 16 15 14 15 16 17 18 18 20
18 18 17 20 22 40 47 43 35 33 29 24 63 84 98 100 100 100 100 100 100 100 100 100 100 94 58 48 49 55 58 30 15 16 18 16 17 18 19 20 22 28 30 27
16 17 18 20 20 28 38 38 36 32 28 23 23 63 92 77 86 100 100 100 100 100 100 80 57 52 48 52 58 49 22 15 17 18 19 19 20 21 28 31 30 28 25 23
17 15 17 19 21 22 29 35 33 30 27 25 24 29 51 80 56 86 87 84 85 86 68 63 66 56 55 43 20 15 16 19 19 20 20 23 29 33 31 28 25 24 24 32
22 18 17 18 22 22 27 34 32 30 28 27 25 32 26 23 20 49 81 77 69 66 65 59 53 48 24 15 14 20 19 21 21 21 28 34 34 31 26 24 26 35 37 36
24 21 20 22 24 22 25 32 34 31 28 26 28 25 23 36 35 28 36 37 31 26 17 15 16 16 16 19 20 19 21 21 26 35 36 35 27 24 27 36 37 36 34 40
24 21 19 20 19 21 22 30 34 31 27 28 31 26 24 34 29 28 28 29 24 19 20 18 17 19 20 21 20 20 26 34 39 38 31 24 26 33 36 35 35 42 46 48
21 22 18 16 19 21 21 27 31 32 29 29 28 26 26 28 30 30 27 25 23 22 20 21 22 21 21 22 22 31 39 41 33 27 28 32 32 34 38 44 49 48 58 56
16 21 22 19 17 18 22 24 26 31 28 25 25 26 28 28 28 25 24 23 23 22 20 20 23 23 23 26 37 43 38 28 31 36 35 38 43 48 50 50 50 67 90 88
12 19 22 22 20 19 22 22 25 26 29 26 25 26 26 26 25 23 24 23 21 19 22 23 24 22 28 41 43 32 30 37 38 43 46 51 68 50 51 59 76 65 95 100
7 10 19 22 22 21 20 21 22 24 28 29 27 25 24 24 25 25 24 21 21 24 24 23 23 35 43 38 28 36 37 45 52 57 62 55 54 72 89 90 99 85 80 78
7 8 14 21 24 24 25 26 27 30 28 27 26 26 24 24 23 24 22 22 23 24 24 32 41 39 31 31 38 39 49 54 54 56 67 74 76 86 84 79 75 71 71 97
9 9 11 16 23 26 29 29 30 30 27 24 23 24 24 23 23 22 21 24 27 34 41 38 32 32 36 34 40 51 55 58 63 83 75 67 72 67 76 79 100 100 100 100
21 24 27 28 32 34 35 33 30 27 26 27 29 30 25 21 22 28 32 40 42 34 31 35 34 37 44 48 57 70 60 67 84 78 68 67 72 79 83 82 100 100 100 100
18 20 24 26 27 29 30 32 32 30 30 29 30 29 29 35 44 46 39 33 34 33 34 37 40 47 49 59 67 70 64 57 56 65 70 79 87 94 99 100 100 100 100 84
31 31 34 36 37 37 36 36 36 35 35 37 44 48 49 44 36 34 35 34 34 35 38 44 56 57 60 61 64 61 60 73 63 71 87 100 100 100 100 82 64 61 62 64
41 40 41 43 44 45 45 46 47 48 46 45 43 39 38 37 36 36 37 40 49 61 66 65 68 77 80 83 79 82 91 100 100 100 95 62 60 58 54 59 63 61 67 80
47 48 50 50 48 45 44 42 39 37 38 38 38 35 33 38 45 52 52 51 61 63 68 80 88 92 97 100 100 100 97 83 67 56 52 50 46 51 58 74 85 89 84 80
45 43 42 42 40 39 43 40 37 38 42 49 54 52 48 56 61 81 72 84 88 78 64 56 55 55 51 47 46 46 49 61 60 48 45 45 54 62 65 63 65 63 61 59
75 70 60 52 50 52 56 39 38 38 49 54 51 55 57 57 59 60 98 100 86 76 66 54 62 61 61 64 71 80 90 72 62 63 62 70 61 57 59 54 49 51 50 51
28 29 45 57 57 55 40 52 70 57 68 100 100 100 79 58 70 67 62 56 55 62 72 90 98 95 92 73 53 54 56 59 67 64 61 44 46 56 63 57 60 59 55 51
32 32 32 31 31 35 57 46 34 36 44 42 45 48 50 59 53 52 47 70 63 65 72 76 74 56 66 62 57 52 49 47 39 42 50 57 65 63 63 60 61 55 52 50
33 36 42 47 46 43 45 50 46 50 49 41 42 50 74 87 90 93 99 100 80 72 72 70 70 62 51 44 41 43 45 46 58 76 75 74 80 69 59 59 56 57 51 43
98 99 98 100 97 100 98 96 94 99 100 100 100 100 100 100 100 88 80 72 69 67 57 48 46 42 44 47 54 63 69 71 84 84 80 70 66 68 61 57 49 47 33 23
63 54 46 51 45 44 43 40 40 43 46 35 36 44 40 36 36 38 41 41 40 41 43 48 59 64 74 90 95 88 91 96 96 85 71 62 55 54 51 42 28 22 19 18
61 58 58 59 55 62 60 61 60 69 89 94 96 96 97 98 98 96 80 72 75 83 94 100 100 100 100 100 100 100 97 81 68 70 63 56 50 46 42 30 22 20 17 15

GFSCGP_250_rhum_135.txt.gz
RH
13 15 20 30 40 54 71 94 100 100 99 91 90 96 100 100 100 100 100 91 74 88 82 84 91 88 88 75 90 100 100 100 88 62 48 21 14 15 14 15 14 15 16 25
14 15 18 24 35 47 50 72 88 91 92 89 77 89 100 100 100 96 95 86 82 93 100 98 94 97 100 100 100 100 99 67 49 33 16 14 16 16 15 15 18 26 30 30
16 16 18 21 30 38 40 48 64 76 87 86 71 62 52 58 42 80 76 86 96 100 100 100 100 100 100 100 97 82 54 34 19 15 16 17 16 17 18 23 30 32 30 24
20 18 18 18 27 37 38 37 36 48 61 79 73 62 46 40 29 44 100 100 99 100 100 95 94 89 83 72 57 38 16 14 16 18 18 18 19 21 29 33 32 26 22 26
21 19 20 19 26 36 38 35 34 31 37 52 62 54 41 36 32 27 44 53 44 37 43 31 49 64 44 23 14 14 14 18 20 19 19 21 28 35 34 27 22 26 34 37
21 21 22 23 26 34 36 35 31 31 31 34 51 52 42 35 31 26 23 22 20 22 19 19 18 16 16 16 16 17 20 20 20 20 23 36 38 29 22 26 31 34 36 41
22 21 20 23 22 29 31 29 29 30 28 28 40 46 42 36 31 28 25 24 26 23 19 15 14 16 19 19 20 23 21 21 22 26 41 38 27 29 31 32 38 45 46 50
24 21 21 20 23 23 25 27 27 27 30 29 34 39 41 37 34 30 28 28 24 20 17 16 19 21 21 22 23 21 23 22 31 42 36 29 35 36 40 43 45 46 67 88
19 22 20 20 20 22 24 23 21 24 32 30 29 34 36 36 36 32 29 28 26 21 19 22 24 22 22 22 22 21 24 36 43 33 34 36 38 42 46 45 55 69 82 67
11 16 20 18 18 18 20 21 21 22 34 33 29 28 37 40 36 33 30 28 24 23 25 26 24 24 24 24 21 26 41 41 33 39 40 41 44 54 53 66 76 66 74 78
11 12 15 18 19 19 19 20 18 20 28 36 30 25 29 39 37 33 29 25 25 26 26 24 24 24 23 22 31 42 35 38 42 54 52 45 52 68 69 65 64 74 93 97
8 10 14 18 20 21 21 20 20 23 31 31 27 26 30 38 37 33 29 27 27 27 24 27 25 23 25 41 38 32 38 41 52 57 51 52 62 60 59 71 78 72 71 76
8 10 11 17 19 21 23 22 20 20 23 25 26 26 26 28 30 29 30 31 28 28 28 24 22 33 42 32 34 36 41 48 52 46 53 60 66 70 65 66 82 93 100 100
9 10 16 18 22 24 26 26 25 24 23 22 24 25 25 27 24 25 29 26 28 25 24 34 43 35 35 36 42 43 43 51 56 60 66 67 66 65 85 97 100 100 78 67
12 13 15 20 22 23 24 25 25 24 23 26 26 26 27 28 30 32 30 30 32 45 43 34 36 37 39 42 44 47 53 64 64 60 56 71 100 100 100 88 67 55 46 45
24 17 18 21 26 29 30 30 30 30 30 30 31 31 31 33 34 38 49 50 40 35 36 39 38 42 52 65 63 64 73 89 92 100 100 97 61 50 51 46 45 48 46 54
30 32 34 35 36 35 34 36 36 36 36 36 36 41 46 53 50 41 37 41 42 38 38 50 62 64 67 81 91 98 100 95 74 55 50 47 50 60 65 62 58 56 60 59
46 46 47 46 45 45 46 48 49 51 51 48 45 40 38 39 40 41 45 51 46 57 66 69 77 87 85 87 75 67 62 49 48 50 43 42 43 45 50 52 53 61 69 69
38 40 41 40 40 41 39 38 38 39 41 46 52 51 45 50 57 52 56 51 49 64 67 51 47 45 40 42 45 56 52 51 44 45 56 58 56 57 60 76 75 71 70 65
67 64 64 65 57 54 58 60 55 55 55 64 55 50 39 41 44 46 40 40 37 39 42 43 46 62 75 76 69 56 55 67 71 64 52 54 64 79 80 74 72 82 85 88
43 41 37 40 57 55 52 43 40 35 35 29 32 37 39 32 30 31 32 36 42 53 59 61 62 88 93 79 67 68 56 47 47 49 52 66 70 78 86 80 89 90 95 91
33 32 35 30 33 28 28 32 33 37 34 33 33 33 35 40 58 70 81 87 94 89 79 68 67 61 55 57 56 54 56 63 65 71 93 99 100 100 97 80 78 83 76 58
48 72 91 82 72 68 60 61 50 44 47 51 56 73 91 67 67 68 66 58 61 69 71 79 91 86 79 74 67 80 92 87 86 94 99 93 95 95 94 86 65 54 45 40
59 70 45 39 42 44 39 40 42 37 40 48 50 50 54 56 59 54 55 54 57 67 85 93 82 66 66 71 75 69 71 84 99 100 100 98 86 86 77 66 52 42 39 36
48 46 45 51 57 69 63 58 53 52 51 62 71 82 94 100 88 60 59 61 59 57 59 56 60 65 70 76 84 82 76 79 96 91 76 79 81 77 57 46 36 27 27 29
58 62 78 83 72 82 76 74 78 92 100 100 100 100 95 83 74 67 51 46 42 44 49 52 56 73 76 79 78 70 65 71 80 73 68 62 57 52 45 38 29 25 27 25

GFSCGP_250_rhum_138.txt.gz
RH
11 11 14 18 17 16 20 28 58 86 100 95 100 100 100 100 100 100 100 100 100 100 100 97 77 93 91 90 87 68 67 57 82 100 100 100 81 34 19 15 14 13 13 15
10 12 14 18 18 19 20 22 50 83 98 100 100 100 100 100 100 100 100 100 100 99 100 97 99 93 74 75 72 79 94 100 100 99 85 46 17 15 16 15 15 15 19 27
13 12 13 16 17 19 23 27 38 66 87 100 100 100 100 100 100 100 100 99 100 100 100 88 80 66 81 87 97 100 100 98 75 42 23 14 16 17 18 16 17 27 27 22
15 15 14 14 15 19 28 31 28 57 76 96 93 99 100 98 100 100 100 100 100 97 78 52 56 56 53 71 100 46 32 32 19 15 15 17 18 21 18 22 29 24 19 21
16 18 15 15 17 20 30 33 31 34 60 82 88 85 83 92 96 82 89 69 67 59 78 100 94 97 86 30 18 18 17 17 16 16 17 19 20 23 30 32 23 22 25 28
18 19 18 17 18 19 24 28 29 28 42 61 65 75 83 84 92 82 69 59 40 34 30 25 26 21 18 18 18 18 18 18 18 20 20 21 22 35 36 27 29 29 32 38
18 20 22 21 18 17 20 26 25 23 26 43 52 56 65 63 68 70 64 56 45 36 32 28 24 22 21 21 21 19 20 20 21 22 22 22 34 38 30 34 36 40 41 46
20 18 17 20 21 19 18 22 24 25 28 43 46 40 40 46 45 51 58 55 49 42 37 32 30 29 27 29 24 23 22 24 24 22 23 36 38 32 37 39 42 45 44 50
20 20 23 22 21 19 19 19 24 27 35 45 40 39 39 34 32 33 36 42 45 43 40 36 33 31 29 27 26 24 25 24 24 23 34 37 32 37 41 45 47 44 51 54
19 20 21 24 23 20 19 20 24 28 37 37 36 34 33 31 32 32 30 30 33 33 36 38 37 33 30 27 26 27 27 27 25 33 35 33 38 42 47 49 53 53 54 61
19 20 21 20 20 20 18 20 22 28 35 39 36 33 34 34 35 36 34 28 29 33 36 40 38 35 31 29 30 28 25 24 37 34 34 37 42 46 48 54 52 66 66 68
13 16 19 23 22 21 21 20 20 26 30 32 32 32 31 32 30 33 32 26 26 29 32 39 38 36 36 34 28 27 29 40 31 33 36 42 43 48 50 58 65 68 77 90
12 13 16 19 21 22 22 23 24 25 28 28 30 30 29 26 26 30 29 30 28 27 29 30 32 35 33 30 28 40 35 33 37 42 44 53 63 65 67 66 70 99 100 96
12 11 12 18 23 24 24 24 24 26 29 27 30 33 32 28 26 25 32 38 32 29 28 32 36 35 32 40 41 34 38 44 48 54 60 71 73 74 91 99 100 87 62 52
11 13 12 11 17 20 21 22 23 24 25 25 27 27 27 26 25 30 34 33 30 30 36 38 34 40 44 34 38 47 57 62 63 71 77 85 97 90 76 59 56 53 52 57
18 15 17 18 17 20 23 24 25 25 26 25 25 26 26 25 26 28 33 32 33 35 36 47 46 36 40 48 54 65 76 83 86 86 84 69 58 64 65 60 54 46 56 58
22 22 23 24 24 25 26 27 28 30 30 31 32 30 31 30 31 35 35 38 45 53 41 39 42 50 58 62 72 66 55 52 50 49 50 49 52 52 64 61 61 68 67 58
33 32 32 31 30 30 32 33 34 34 36 36 36 38 37 41 42 48 51 44 43 44 45 51 60 65 71 62 50 46 46 50 54 55 62 66 65 66 80 81 64 54 60 69
44 46 45 42 39 38 37 39 41 44 46 49 51 50 47 43 40 39 42 44 51 53 49 44 44 42 46 47 46 50 51 57 56 64 58 55 59 69 72 70 70 77 78 79
48 44 40 39 40 39 40 40 40 41 40 40 41 43 42 39 45 48 42 37 36 35 39 48 53 66 66 65 64 64 64 70 80 78 74 76 68 74 80 81 70 72 86 88
39 42 43 43 40 36 34 35 37 37 36 39 37 33 35 34 35 38 43 51 53 49 51 50 50 45 45 44 44 45 46 49 53 59 60 62 59 61 64 61 58 77 95 97
37 37 42 36 33 32 36 37 39 42 41 39 40 41 41 40 41 46 45 38 38 45 42 36 34 38 41 43 41 43 47 49 50 49 51 56 58 58 58 66 75 75 76 88
45 76 67 44 43 37 37 33 34 33 34 36 38 35 31 32 35 42 58 90 69 52 56 57 61 62 56 48 44 56 53 52 52 61 57 52 53 58 60 61 65 63 59 61
42 36 30 35 36 37 39 48 50 48 56 63 65 63 62 65 88 98 88 82 76 80 82 76 65 58 50 48 61 62 66 69 65 67 68 64 60 64 62 64 65 55 59 60
48 47 53 47 48 47 37 52 50 65 80 76 62 76 85 90 84 82 90 77 84 76 60 52 51 47 49 60 76 89 88 85 85 82 76 65 68 72 64 49 38 42 42 38
38 44 52 56 48 35 35 73 86 92 93 93 95 91 90 96 100 100 100 92 72 60 50 46 51 66 80 86 97 98 98 89 76 64 61 65 64 70 51 30 25 26 25 24

GFSCGP_250_rhum_141.txt.gz
RH
10 12 12 12 14 18 18 17 16 16 18 24 86 100 100 100 100 100 100 100 100 100 100 100 100 100 100 98 82 95 98 100 78 79 74 100 100 90 71 37 17 16 15 14
9 10 12 12 13 18 20 17 17 18 19 22 31 87 100 100 100 100 100 100 100 100 100 100 100 100 91 100 96 95 99 73 72 85 100 92 45 29 19 16 17 16 15 16
11 13 11 11 13 18 23 20 18 17 20 22 21 32 99 100 100 100 100 100 100 100 100 100 100 96 100 90 82 75 59 60 78 100 73 23 18 17 18 18 18 18 17 24
14 15 14 14 13 17 22 24 21 19 19 20 22 26 71 100 100 100 100 100 100 100 100 100 100 93 96 82 84 48 55 86 100 34 18 18 18 19 20 21 20 21 28 26
11 15 16 15 17 19 22 24 24 21 20 20 18 19 39 94 100 100 100 100 100 100 100 100 99 87 82 82 46 64 92 57 20 22 21 21 21 20 24 23 23 32 31 27
12 12 14 15 16 20 21 23 23 21 20 19 22 24 33 72 90 98 100 100 100 100 100 93 96 78 52 32 28 25 26 27 27 25 23 23 23 24 23 22 30 35 31 34
12 15 15 15 15 16 18 20 22 20 18 17 21 27 35 54 78 86 100 100 100 96 85 76 70 51 41 39 36 35 32 30 29 28 25 25 27 24 23 29 36 34 38 41
15 16 17 17 17 17 18 18 21 20 18 18 24 26 42 48 62 70 73 78 85 86 80 67 56 48 46 41 39 38 35 33 32 31 29 30 27 24 28 37 34 39 41 41
16 18 21 22 20 18 19 19 19 19 19 24 25 30 44 45 53 61 59 66 68 60 50 40 38 36 37 40 41 39 38 34 37 36 32 28 25 32 37 33 37 42 41 43
18 20 22 24 22 20 20 20 19 20 21 19 24 29 31 42 57 61 58 54 46 44 37 31 30 32 35 36 34 33 32 37 36 32 28 27 34 34 33 36 41 45 49 53
18 18 23 23 24 22 21 20 19 21 22 23 27 29 31 31 40 49 50 47 42 37 30 30 32 35 35 32 28 26 31 32 31 30 32 38 31 33 37 44 50 54 58 65
18 18 20 24 23 21 20 21 22 22 22 22 24 27 27 29 35 46 47 42 36 29 28 34 38 40 36 34 27 29 30 31 32 38 39 33 36 41 45 52 64 68 72 73
16 18 19 20 20 21 21 21 24 22 21 22 21 23 27 31 32 37 38 31 28 33 36 35 32 37 42 40 32 30 34 38 46 37 41 44 50 54 57 72 82 90 93 96
22 20 20 23 25 22 22 24 25 23 22 24 23 25 27 32 36 36 34 37 40 40 37 31 31 40 46 37 33 35 45 44 41 55 60 68 70 78 85 88 89 86 66 53
17 19 21 23 22 22 22 22 23 24 23 22 23 25 29 37 40 37 37 39 38 38 34 29 38 41 36 36 38 49 40 44 50 62 74 86 76 68 62 56 54 56 54 51
14 17 20 20 21 23 22 22 23 24 24 26 26 28 31 32 34 31 31 30 37 36 30 35 35 37 35 50 42 45 56 64 74 72 63 72 59 48 47 47 44 45 43 40
14 14 15 20 22 25 26 27 26 25 24 23 26 29 29 33 32 33 37 40 35 34 35 36 37 50 44 46 58 59 56 60 61 50 42 39 38 37 39 43 48 51 49 51
19 17 17 18 22 24 25 27 28 27 27 30 33 30 33 37 40 38 36 33 35 36 43 53 46 43 49 45 46 46 43 40 40 40 41 39 42 44 46 48 56 56 58 59
28 25 22 22 22 24 27 28 31 34 35 37 39 41 42 37 36 36 37 40 46 50 42 41 42 46 42 41 35 34 37 40 46 50 46 46 53 57 63 66 63 66 75 75
39 36 34 30 28 28 28 30 31 33 35 36 37 37 38 41 46 48 45 39 36 41 47 41 35 33 34 41 48 53 51 52 54 48 46 47 57 68 77 88 87 85 81 73
35 35 37 38 38 39 39 39 41 41 43 42 40 40 37 36 37 37 40 41 42 36 30 28 38 41 47 63 58 57 54 43 42 46 61 63 69 67 76 88 98 95 80 74
36 35 36 35 36 34 37 39 41 40 42 38 37 36 36 36 36 35 34 30 26 29 40 52 55 67 78 73 60 59 54 51 58 65 66 75 83 87 91 91 94 97 94 90
46 34 36 44 46 47 44 39 34 36 34 36 44 41 36 32 29 31 42 48 55 58 66 66 79 96 100 82 72 62 56 66 70 77 80 88 93 96 98 100 95 96 93 88
36 38 38 34 31 30 34 38 43 44 49 57 66 68 66 60 51 56 65 70 74 77 82 86 99 100 73 64 72 73 73 63 72 88 98 100 100 100 100 99 90 73 68 79
39 33 35 39 38 38 44 37 29 29 34 48 59 70 76 82 81 76 84 84 83 90 100 100 93 78 89 91 85 78 70 75 92 98 98 100 100 100 100 94 75 56 63 50
34 31 27 27 35 35 35 30 26 27 29 28 33 47 55 76 72 74 69 74 85 93 98 95 100 100 91 90 83 76 88 89 87 91 99 100 99 95 84 77 64 38 35 26

GFSCGP_250_rhum_144.txt.gz
RH
5 6 10 13 13 13 14 17 23 23 26 42 60 88 100 100 100 97 100 100 94 93 100 100 100 100 100 100 100 100 98 74 98 100 98 95 78 60 82 100 49 20 19 17
5 7 10 12 14 13 13 16 22 22 22 28 33 53 92 100 100 100 92 93 95 100 100 100 100 100 100 100 100 97 73 100 100 95 89 78 48 68 85 22 21 21 20 16
5 6 10 12 14 13 13 17 21 22 21 24 23 24 37 70 94 100 100 100 100 100 100 100 100 100 99 100 88 87 100 100 100 95 82 52 67 74 26 25 25 23 21 16
5 7 10 13 14 14 16 19 20 23 22 22 23 20 19 27 56 96 100 100 100 100 100 100 100 100 100 93 98 100 100 100 99 94 59 58 32 28 30 29 26 23 20 21
5 8 10 13 15 14 15 16 22 24 23 21 22 22 20 19 18 49 91 100 100 100 100 100 100 100 99 100 100 100 97 98 67 33 33 35 34 33 30 29 24 20 22 24
6 8 13 14 16 16 15 15 19 24 26 23 20 19 18 16 16 18 35 80 98 100 100 100 100 100 100 100 100 100 100 46 43 42 40 36 34 29 29 24 21 21 24 31
7 10 13 17 16 16 16 15 15 20 22 24 23 20 18 16 16 18 24 72 100 100 100 100 100 100 100 100 100 100 77 58 42 35 34 30 26 26 25 22 20 23 32 33
9 10 14 16 18 17 16 15 16 17 21 27 23 20 19 19 19 20 26 59 98 100 100 100 100 100 100 93 87 68 41 28 29 27 27 27 23 24 23 22 23 32 32 32
8 13 13 16 16 16 16 16 16 17 20 30 26 23 23 20 19 19 26 40 75 86 95 98 96 83 73 56 48 34 30 30 30 31 32 25 25 26 25 25 33 30 31 36
11 16 16 16 16 16 17 17 17 17 20 26 24 24 24 23 21 21 26 34 55 76 85 78 61 56 47 47 41 34 30 31 34 40 33 28 28 27 28 36 31 31 36 48
12 16 17 18 18 17 16 16 16 18 23 26 26 25 24 22 21 19 30 36 41 45 51 54 56 53 49 50 42 32 32 31 38 37 33 30 31 38 40 34 33 37 43 52
14 15 16 19 20 20 18 18 18 21 27 28 27 26 24 22 22 22 28 33 34 35 43 59 60 56 51 48 38 37 33 33 36 35 31 32 43 41 38 43 58 71 74 71
14 17 16 15 18 21 21 20 20 23 27 28 25 25 25 24 23 24 26 28 30 32 39 47 53 52 46 44 43 38 32 34 34 33 35 45 38 40 45 56 60 69 81 77
17 17 18 18 21 21 22 22 21 23 26 25 23 24 25 25 26 28 28 30 33 34 35 38 44 46 48 47 40 35 33 33 34 37 46 39 41 50 59 66 62 54 48 45
16 18 20 20 18 19 21 24 25 26 25 24 23 24 24 26 28 28 26 26 28 29 34 43 50 53 45 41 38 34 34 34 44 44 39 46 50 56 51 44 42 41 44 47
16 17 17 21 21 22 20 21 24 27 28 28 29 28 31 30 27 26 26 26 26 32 41 52 54 43 40 38 35 35 37 48 37 40 43 45 43 44 44 47 48 47 52 60
16 18 17 16 19 22 24 29 32 31 33 30 29 33 28 28 28 28 27 25 30 41 52 51 45 46 39 35 35 47 42 40 41 41 44 46 51 55 50 44 49 57 60 63
15 16 17 19 20 26 26 28 32 35 31 33 38 32 30 28 28 28 26 29 36 46 45 42 42 36 35 44 44 39 40 40 44 49 53 51 53 46 48 51 52 58 64 66
15 16 19 19 20 22 25 27 30 33 35 37 34 29 30 31 29 30 32 39 45 41 42 38 36 47 44 40 39 37 40 45 54 57 61 59 62 52 50 60 71 69 67 74
28 23 21 21 22 22 25 26 28 29 32 34 32 31 32 34 37 39 43 42 40 38 42 45 37 38 32 34 37 41 48 65 76 75 87 56 69 78 82 76 67 65 79 97
40 38 32 28 26 26 27 28 30 32 34 36 38 40 39 39 39 38 40 44 46 36 30 31 33 31 38 46 48 57 66 81 88 93 79 94 82 84 84 81 80 84 96 98
36 34 35 37 38 39 37 36 36 36 37 38 40 42 44 41 37 36 35 33 33 32 35 33 34 37 46 59 61 67 80 89 91 96 99 87 95 90 88 76 79 88 82 89
46 45 40 38 36 36 34 32 31 32 32 33 34 38 38 38 38 36 34 34 33 46 51 52 53 54 69 73 72 79 86 90 99 94 91 100 86 87 84 88 95 91 90 94
37 34 34 36 37 36 35 34 33 35 39 41 44 48 49 46 50 56 61 66 67 63 73 74 73 58 56 68 85 96 99 95 100 100 100 91 90 89 93 85 88 95 100 98
26 25 26 25 26 27 26 26 27 33 36 35 34 34 33 34 32 28 29 30 32 34 36 41 48 61 74 77 70 85 96 98 94 99 100 96 91 96 93 86 86 89 90 94
40 36 32 32 28 28 29 26 25 25 26 26 26 27 29 32 34 37 42 42 44 48 58 59 64 72 82 91 97 88 82 93 91 93 90 95 100 96 76 75 78 89 71 58